Wetterdaten: Freitag, 21.08.2009
Datum Zeit Temp. Innen Temp. Aussen UV X Diff Temp. Feuchte Inne Feuchte Auss Sonnenschein Luftdruck Regen ab 0,1 Wind Sonnenschein Windben
21.08.2009 00:04 25,4 C 20,1 C 0,0 UV-I 0,0 C 63 % 85 % 0 % 1020,3 hPa 0,0 l/m 1,0 km/h (0 Bft) 0 min 0,0 km/h (0 Bft)
21.08.2009 00:09 25,4 C 20,0 C 0,0 UV-I 0,0 C 63 % 85 % 0 % 1020,3 hPa 0,0 l/m 0,5 km/h (0 Bft) 0 min 0,0 km/h (0 Bft)
21.08.2009 00:14 25,4 C 20,0 C 0,0 UV-I 0,0 C 63 % 86 % 0 % 1020,3 hPa 0,0 l/m 0,2 km/h (0 Bft) 0 min 3,4 km/h (1 Bft)
21.08.2009 00:19 25,4 C 20,0 C 0,0 UV-I 0,0 C 63 % 86 % 0 % 1020,6 hPa 0,0 l/m 0,0 km/h (0 Bft) 0 min 0,0 km/h (0 Bft)
21.08.2009 00:24 25,2 C 19,9 C 0,0 UV-I 0,0 C 63 % 85 % 0 % 1020,6 hPa 0,0 l/m 0,0 km/h (0 Bft) 0 min 0,0 km/h (0 Bft)
21.08.2009 00:29 25,2 C 19,8 C 0,0 UV-I 0,0 C 63 % 86 % 0 % 1020,6 hPa 0,0 l/m 0,5 km/h (0 Bft) 0 min 4,1 km/h (1 Bft)
21.08.2009 00:34 25,3 C 19,8 C 0,0 UV-I 0,0 C 63 % 86 % 0 % 1020,6 hPa 0,0 l/m 0,5 km/h (0 Bft) 0 min 0,0 km/h (0 Bft)
21.08.2009 00:39 25,2 C 19,9 C 0,0 UV-I 0,0 C 63 % 86 % 0 % 1020,5 hPa 0,0 l/m 0,2 km/h (0 Bft) 0 min 0,0 km/h (0 Bft)
21.08.2009 00:44 25,2 C 19,8 C 0,0 UV-I 0,0 C 63 % 86 % 0 % 1020,5 hPa 0,0 l/m 0,0 km/h (0 Bft) 0 min 0,0 km/h (0 Bft)
21.08.2009 00:49 25,2 C 19,7 C 0,0 UV-I 0,0 C 63 % 86 % 0 % 1020,5 hPa 0,0 l/m 0,0 km/h (0 Bft) 0 min 0,0 km/h (0 Bft)
21.08.2009 00:54 25,2 C 19,6 C 0,0 UV-I 0,0 C 63 % 86 % 0 % 1020,5 hPa 0,0 l/m 0,0 km/h (0 Bft) 0 min 0,0 km/h (0 Bft)
21.08.2009 00:59 25,2 C 19,6 C 0,0 UV-I 0,0 C 63 % 87 % 0 % 1020,7 hPa 0,0 l/m 0,5 km/h (0 Bft) 0 min 0,0 km/h (0 Bft)
21.08.2009 01:04 25,2 C 19,7 C 0,0 UV-I 0,0 C 63 % 87 % 0 % 1020,7 hPa 0,0 l/m 0,5 km/h (0 Bft) 0 min 0,0 km/h (0 Bft)
21.08.2009 01:09 25,2 C 19,5 C 0,0 UV-I 0,0 C 63 % 87 % 0 % 1020,7 hPa 0,0 l/m 0,2 km/h (0 Bft) 0 min 2,9 km/h (1 Bft)
21.08.2009 01:14 25,1 C 19,5 C 0,0 UV-I 0,0 C 63 % 87 % 0 % 1020,7 hPa 0,0 l/m 0,2 km/h (0 Bft) 0 min 0,0 km/h (0 Bft)
21.08.2009 01:19 25,1 C 19,5 C 0,0 UV-I 0,0 C 63 % 88 % 0 % 1020,9 hPa 0,0 l/m 0,5 km/h (0 Bft) 0 min 2,4 km/h (1 Bft)
21.08.2009 01:24 25,1 C 19,5 C 0,0 UV-I 0,0 C 63 % 88 % 0 % 1020,9 hPa 0,0 l/m 0,2 km/h (0 Bft) 0 min 0,0 km/h (0 Bft)
21.08.2009 01:29 25,1 C 19,4 C 0,0 UV-I 0,0 C 63 % 88 % 0 % 1020,9 hPa 0,0 l/m 0,5 km/h (0 Bft) 0 min 0,0 km/h (0 Bft)
21.08.2009 01:34 25,1 C 19,5 C 0,0 UV-I 0,0 C 63 % 88 % 0 % 1020,9 hPa 0,0 l/m 0,5 km/h (0 Bft) 0 min 3,8 km/h (1 Bft)
21.08.2009 01:39 25,1 C 19,4 C 0,0 UV-I 0,0 C 63 % 88 % 0 % 1020,5 hPa 0,0 l/m 1,7 km/h (1 Bft) 0 min 7,0 km/h (2 Bft)
21.08.2009 01:44 25,1 C 19,3 C 0,0 UV-I 0,0 C 63 % 88 % 0 % 1020,5 hPa 0,0 l/m 3,1 km/h (1 Bft) 0 min 7,5 km/h (2 Bft)
21.08.2009 01:49 25,1 C 19,3 C 0,0 UV-I 0,0 C 63 % 88 % 0 % 1020,5 hPa 0,0 l/m 2,4 km/h (1 Bft) 0 min 0,0 km/h (0 Bft)
21.08.2009 01:54 25,0 C 19,3 C 0,0 UV-I 0,0 C 63 % 88 % 0 % 1020,5 hPa 0,0 l/m 1,4 km/h (1 Bft) 0 min 0,0 km/h (0 Bft)
21.08.2009 01:59 25,0 C 19,2 C 0,0 UV-I 0,0 C 63 % 88 % 0 % 1020,7 hPa 0,0 l/m 1,0 km/h (0 Bft) 0 min 0,0 km/h (0 Bft)
21.08.2009 02:04 25,0 C 19,3 C 0,0 UV-I 0,0 C 63 % 88 % 0 % 1020,7 hPa 0,0 l/m 0,5 km/h (0 Bft) 0 min 0,0 km/h (0 Bft)
21.08.2009 02:09 25,0 C 19,2 C 0,0 UV-I 0,0 C 63 % 88 % 0 % 1020,7 hPa 0,0 l/m 0,2 km/h (0 Bft) 0 min 0,0 km/h (0 Bft)
21.08.2009 02:14 25,0 C 19,1 C 0,0 UV-I 0,0 C 63 % 88 % 0 % 1020,7 hPa 0,0 l/m 0,2 km/h (0 Bft) 0 min 0,0 km/h (0 Bft)
21.08.2009 02:19 25,0 C 19,1 C 0,0 UV-I 0,0 C 63 % 87 % 0 % 1020,6 hPa 0,0 l/m 0,2 km/h (0 Bft) 0 min 0,0 km/h (0 Bft)
21.08.2009 02:24 24,9 C 19,0 C 0,0 UV-I 0,0 C 63 % 87 % 0 % 1020,6 hPa 0,0 l/m 0,5 km/h (0 Bft) 0 min 0,0 km/h (0 Bft)
21.08.2009 02:29 24,9 C 19,1 C 0,0 UV-I 0,0 C 63 % 87 % 0 % 1020,6 hPa 0,0 l/m 0,2 km/h (0 Bft) 0 min 0,0 km/h (0 Bft)
21.08.2009 02:34 24,9 C 19,0 C 0,0 UV-I 0,0 C 63 % 87 % 0 % 1020,6 hPa 0,0 l/m 0,0 km/h (0 Bft) 0 min 0,0 km/h (0 Bft)
21.08.2009 02:39 24,9 C 18,9 C 0,0 UV-I 0,0 C 63 % 87 % 0 % 1021,0 hPa 0,0 l/m 0,0 km/h (0 Bft) 0 min 0,0 km/h (0 Bft)
21.08.2009 02:44 24,8 C 18,9 C 0,0 UV-I 0,0 C 63 % 87 % 0 % 1021,0 hPa 0,0 l/m 0,0 km/h (0 Bft) 0 min 0,0 km/h (0 Bft)
21.08.2009 02:49 24,8 C 18,8 C 0,0 UV-I 0,0 C 63 % 87 % 0 % 1021,0 hPa 0,0 l/m 0,0 km/h (0 Bft) 0 min 0,0 km/h (0 Bft)
21.08.2009 02:54 24,8 C 18,9 C 0,0 UV-I 0,0 C 63 % 87 % 0 % 1021,0 hPa 0,0 l/m 0,0 km/h (0 Bft) 0 min 0,0 km/h (0 Bft)
21.08.2009 02:59 24,8 C 18,8 C 0,0 UV-I 0,0 C 63 % 87 % 0 % 1020,6 hPa 0,0 l/m 0,5 km/h (0 Bft) 0 min 0,0 km/h (0 Bft)
21.08.2009 03:04 24,8 C 18,7 C 0,0 UV-I 0,0 C 63 % 86 % 0 % 1020,6 hPa 0,0 l/m 0,5 km/h (0 Bft) 0 min 0,0 km/h (0 Bft)
21.08.2009 03:09 24,8 C 18,6 C 0,0 UV-I 0,0 C 62 % 86 % 0 % 1020,6 hPa 0,0 l/m 0,5 km/h (0 Bft) 0 min 0,0 km/h (0 Bft)
21.08.2009 03:14 24,8 C 18,6 C 0,0 UV-I 0,0 C 62 % 85 % 0 % 1020,6 hPa 0,0 l/m 0,7 km/h (0 Bft) 0 min 2,9 km/h (1 Bft)
21.08.2009 03:19 24,7 C 18,4 C 0,0 UV-I 0,0 C 62 % 84 % 0 % 1020,8 hPa 0,0 l/m 0,5 km/h (0 Bft) 0 min 4,8 km/h (1 Bft)
21.08.2009 03:24 24,7 C 18,4 C 0,0 UV-I 0,0 C 61 % 84 % 0 % 1020,8 hPa 0,0 l/m 0,7 km/h (0 Bft) 0 min 0,0 km/h (0 Bft)
21.08.2009 03:29 24,7 C 18,2 C 0,0 UV-I 0,0 C 61 % 83 % 0 % 1020,8 hPa 0,0 l/m 1,2 km/h (1 Bft) 0 min 0,0 km/h (0 Bft)
21.08.2009 03:34 24,6 C 18,2 C 0,0 UV-I 0,0 C 60 % 83 % 0 % 1020,8 hPa 0,0 l/m 1,4 km/h (1 Bft) 0 min 0,0 km/h (0 Bft)
21.08.2009 03:39 24,6 C 18,1 C 0,0 UV-I 0,0 C 60 % 82 % 0 % 1020,9 hPa 0,0 l/m 1,0 km/h (0 Bft) 0 min 0,0 km/h (0 Bft)
21.08.2009 03:44 24,6 C 18,1 C 0,0 UV-I 0,0 C 60 % 82 % 0 % 1020,9 hPa 0,0 l/m 0,7 km/h (0 Bft) 0 min 0,0 km/h (0 Bft)
21.08.2009 03:49 24,6 C 17,9 C 0,0 UV-I 0,0 C 60 % 82 % 0 % 1020,9 hPa 0,0 l/m 1,0 km/h (0 Bft) 0 min 2,4 km/h (1 Bft)
21.08.2009 03:54 24,5 C 17,9 C 0,0 UV-I 0,0 C 60 % 81 % 0 % 1020,9 hPa 0,0 l/m 1,4 km/h (1 Bft) 0 min 2,6 km/h (1 Bft)
21.08.2009 03:59 24,5 C 17,8 C 0,0 UV-I 0,0 C 60 % 81 % 0 % 1020,6 hPa 0,0 l/m 1,4 km/h (1 Bft) 0 min 2,9 km/h (1 Bft)
21.08.2009 04:04 24,5 C 17,7 C 0,0 UV-I 0,0 C 59 % 81 % 0 % 1020,6 hPa 0,0 l/m 1,0 km/h (0 Bft) 0 min 0,0 km/h (0 Bft)
21.08.2009 04:09 24,4 C 17,6 C 0,0 UV-I 0,0 C 59 % 80 % 0 % 1020,6 hPa 0,0 l/m 0,7 km/h (0 Bft) 0 min 0,0 km/h (0 Bft)
21.08.2009 04:15 24,4 C 17,5 C 0,0 UV-I 0,0 C 59 % 80 % 0 % 1020,6 hPa 0,0 l/m 0,5 km/h (0 Bft) 0 min 5,1 km/h (1 Bft)
21.08.2009 04:16 24,4 C 17,5 C 0,0 UV-I 0,0 C 59 % 80 % 0 % 1020,9 hPa 0,0 l/m 0,5 km/h (0 Bft) 0 min 0,0 km/h (0 Bft)
21.08.2009 04:18 24,4 C 17,4 C 0,0 UV-I 0,0 C 58 % 80 % 0 % 1020,9 hPa 0,0 l/m 0,5 km/h (0 Bft) 0 min 0,0 km/h (0 Bft)
21.08.2009 04:20 24,4 C 17,5 C 0,0 UV-I 0,0 C 58 % 80 % 0 % 1020,9 hPa 0,0 l/m 0,2 km/h (0 Bft) 0 min 0,0 km/h (0 Bft)
21.08.2009 04:22 24,4 C 17,5 C 0,0 UV-I 0,0 C 58 % 80 % 0 % 1020,9 hPa 0,0 l/m 0,5 km/h (0 Bft) 0 min 3,1 km/h (1 Bft)
21.08.2009 04:24 24,4 C 17,4 C 0,0 UV-I 0,0 C 58 % 80 % 0 % 1020,9 hPa 0,0 l/m 0,2 km/h (0 Bft) 0 min 3,1 km/h (1 Bft)
21.08.2009 04:26 24,4 C 17,3 C 0,0 UV-I 0,0 C 58 % 80 % 0 % 1020,9 hPa 0,0 l/m 0,2 km/h (0 Bft) 0 min 0,0 km/h (0 Bft)
21.08.2009 04:28 24,4 C 17,3 C 0,0 UV-I 0,0 C 58 % 80 % 0 % 1020,9 hPa 0,0 l/m 0,2 km/h (0 Bft) 0 min 2,6 km/h (1 Bft)
21.08.2009 04:30 24,4 C 17,3 C 0,0 UV-I 0,0 C 58 % 80 % 0 % 1020,9 hPa 0,0 l/m 0,2 km/h (0 Bft) 0 min 2,6 km/h (1 Bft)
21.08.2009 04:32 24,4 C 17,2 C 0,0 UV-I 0,0 C 58 % 80 % 0 % 1020,9 hPa 0,0 l/m 0,5 km/h (0 Bft) 0 min 3,8 km/h (1 Bft)
21.08.2009 04:34 24,4 C 17,2 C 0,0 UV-I 0,0 C 58 % 80 % 0 % 1020,9 hPa 0,0 l/m 0,5 km/h (0 Bft) 0 min 3,8 km/h (1 Bft)
21.08.2009 04:36 24,2 C 17,3 C 0,0 UV-I 0,0 C 58 % 80 % 0 % 1020,8 hPa 0,0 l/m 0,5 km/h (0 Bft) 0 min 3,4 km/h (1 Bft)
21.08.2009 04:38 24,2 C 17,3 C 0,0 UV-I 0,0 C 57 % 80 % 0 % 1020,8 hPa 0,0 l/m 0,7 km/h (0 Bft) 0 min 3,6 km/h (1 Bft)
21.08.2009 04:40 24,3 C 17,3 C 0,0 UV-I 0,0 C 57 % 80 % 0 % 1020,8 hPa 0,0 l/m 0,5 km/h (0 Bft) 0 min 3,6 km/h (1 Bft)
21.08.2009 04:42 24,2 C 17,2 C 0,0 UV-I 0,0 C 57 % 80 % 0 % 1020,8 hPa 0,0 l/m 0,5 km/h (0 Bft) 0 min 0,0 km/h (0 Bft)
21.08.2009 04:44 24,3 C 17,2 C 0,0 UV-I 0,0 C 57 % 80 % 0 % 1020,8 hPa 0,0 l/m 0,2 km/h (0 Bft) 0 min 0,0 km/h (0 Bft)
21.08.2009 04:46 24,3 C 17,2 C 0,0 UV-I 0,0 C 57 % 80 % 0 % 1020,8 hPa 0,0 l/m 0,2 km/h (0 Bft) 0 min 0,0 km/h (0 Bft)
21.08.2009 04:48 24,3 C 17,2 C 0,0 UV-I 0,0 C 57 % 80 % 0 % 1020,8 hPa 0,0 l/m 0,2 km/h (0 Bft) 0 min 0,0 km/h (0 Bft)
21.08.2009 04:50 24,3 C 17,2 C 0,0 UV-I 0,0 C 57 % 80 % 0 % 1020,8 hPa 0,0 l/m 0,2 km/h (0 Bft) 0 min 3,1 km/h (1 Bft)
21.08.2009 04:52 24,2 C 17,1 C 0,0 UV-I 0,0 C 57 % 80 % 0 % 1020,8 hPa 0,0 l/m 0,2 km/h (0 Bft) 0 min 3,1 km/h (1 Bft)
21.08.2009 04:54 24,2 C 17,1 C 0,0 UV-I 0,0 C 57 % 80 % 0 % 1020,8 hPa 0,0 l/m 0,5 km/h (0 Bft) 0 min 2,6 km/h (1 Bft)
21.08.2009 04:56 24,2 C 17,1 C 0,0 UV-I 0,0 C 57 % 80 % 0 % 1021,0 hPa 0,0 l/m 0,5 km/h (0 Bft) 0 min 2,6 km/h (1 Bft)
21.08.2009 04:58 24,2 C 17,1 C 0,0 UV-I 0,0 C 57 % 80 % 0 % 1021,0 hPa 0,0 l/m 0,5 km/h (0 Bft) 0 min 0,0 km/h (0 Bft)
21.08.2009 05:00 24,2 C 17,1 C 0,0 UV-I 0,0 C 57 % 81 % 0 % 1021,0 hPa 0,0 l/m 0,5 km/h (0 Bft) 0 min 0,0 km/h (0 Bft)
21.08.2009 05:02 24,2 C 17,1 C 0,0 UV-I 0,0 C 57 % 81 % 0 % 1021,0 hPa 0,0 l/m 0,2 km/h (0 Bft) 0 min 0,0 km/h (0 Bft)
21.08.2009 05:04 24,2 C 17,1 C 0,0 UV-I 0,0 C 57 % 81 % 0 % 1021,0 hPa 0,0 l/m 0,2 km/h (0 Bft) 0 min 3,8 km/h (1 Bft)
21.08.2009 05:06 24,2 C 17,1 C 0,0 UV-I 0,0 C 57 % 81 % 0 % 1021,0 hPa 0,0 l/m 0,2 km/h (0 Bft) 0 min 4,3 km/h (1 Bft)
21.08.2009 05:08 24,2 C 17,1 C 0,0 UV-I 0,0 C 57 % 81 % 0 % 1021,0 hPa 0,0 l/m 0,2 km/h (0 Bft) 0 min 4,3 km/h (1 Bft)
21.08.2009 05:10 24,2 C 17,1 C 0,0 UV-I 0,0 C 57 % 81 % 0 % 1021,0 hPa 0,0 l/m 0,2 km/h (0 Bft) 0 min 2,9 km/h (1 Bft)
21.08.2009 05:12 24,2 C 17,1 C 0,0 UV-I 0,0 C 57 % 81 % 0 % 1021,0 hPa 0,0 l/m 0,2 km/h (0 Bft) 0 min 2,9 km/h (1 Bft)
21.08.2009 05:14 24,1 C 17,1 C 0,0 UV-I 0,0 C 57 % 81 % 0 % 1021,0 hPa 0,0 l/m 0,5 km/h (0 Bft) 0 min 0,0 km/h (0 Bft)
21.08.2009 05:16 24,1 C 17,1 C 0,0 UV-I 0,0 C 57 % 82 % 0 % 1021,0 hPa 0,0 l/m 0,2 km/h (0 Bft) 0 min 2,4 km/h (1 Bft)
21.08.2009 05:18 24,1 C 17,0 C 0,0 UV-I 0,0 C 57 % 82 % 0 % 1021,0 hPa 0,0 l/m 0,2 km/h (0 Bft) 0 min 3,4 km/h (1 Bft)
21.08.2009 05:20 24,1 C 17,0 C 0,0 UV-I 0,0 C 57 % 82 % 0 % 1021,0 hPa 0,0 l/m 0,5 km/h (0 Bft) 0 min 3,4 km/h (1 Bft)
21.08.2009 05:22 24,1 C 17,0 C 0,0 UV-I 0,0 C 57 % 82 % 0 % 1021,0 hPa 0,0 l/m 0,5 km/h (0 Bft) 0 min 4,3 km/h (1 Bft)
21.08.2009 05:24 24,1 C 17,0 C 0,0 UV-I 0,0 C 57 % 82 % 0 % 1021,0 hPa 0,0 l/m 0,7 km/h (0 Bft) 0 min 4,3 km/h (1 Bft)
21.08.2009 05:26 24,0 C 17,1 C 0,0 UV-I 0,0 C 57 % 82 % 0 % 1021,0 hPa 0,0 l/m 0,7 km/h (0 Bft) 0 min 4,6 km/h (1 Bft)
21.08.2009 05:28 24,1 C 17,0 C 0,0 UV-I 0,0 C 57 % 82 % 0 % 1021,0 hPa 0,0 l/m 0,7 km/h (0 Bft) 0 min 4,6 km/h (1 Bft)
21.08.2009 05:30 24,1 C 17,1 C 0,0 UV-I 0,0 C 57 % 82 % 0 % 1021,0 hPa 0,0 l/m 1,0 km/h (0 Bft) 0 min 2,9 km/h (1 Bft)
21.08.2009 05:32 24,0 C 17,1 C 0,0 UV-I 0,0 C 57 % 82 % 0 % 1021,0 hPa 0,0 l/m 0,7 km/h (0 Bft) 0 min 0,0 km/h (0 Bft)
21.08.2009 05:34 24,0 C 17,1 C 0,0 UV-I 0,0 C 57 % 82 % 0 % 1021,0 hPa 0,0 l/m 0,5 km/h (0 Bft) 0 min 0,0 km/h (0 Bft)
21.08.2009 05:36 24,0 C 17,0 C 0,0 UV-I 0,0 C 57 % 82 % 0 % 1021,6 hPa 0,0 l/m 0,5 km/h (0 Bft) 0 min 0,0 km/h (0 Bft)
21.08.2009 05:38 24,0 C 17,1 C 0,0 UV-I 0,0 C 57 % 82 % 0 % 1021,6 hPa 0,0 l/m 0,2 km/h (0 Bft) 0 min 0,0 km/h (0 Bft)
21.08.2009 05:40 24,0 C 17,0 C 0,0 UV-I 0,0 C 57 % 82 % 0 % 1021,6 hPa 0,0 l/m 0,5 km/h (0 Bft) 0 min 3,8 km/h (1 Bft)
21.08.2009 05:42 24,0 C 17,1 C 0,0 UV-I 0,0 C 57 % 82 % 0 % 1021,6 hPa 0,0 l/m 1,0 km/h (0 Bft) 0 min 4,1 km/h (1 Bft)
21.08.2009 05:44 24,0 C 17,1 C 0,0 UV-I 0,0 C 57 % 81 % 0 % 1021,6 hPa 0,0 l/m 1,2 km/h (1 Bft) 0 min 4,1 km/h (1 Bft)
21.08.2009 05:46 24,0 C 17,1 C 0,0 UV-I 0,0 C 57 % 82 % 0 % 1021,6 hPa 0,0 l/m 1,2 km/h (1 Bft) 0 min 3,1 km/h (1 Bft)
21.08.2009 05:48 24,0 C 17,1 C 0,0 UV-I 0,0 C 57 % 82 % 0 % 1021,6 hPa 0,0 l/m 1,9 km/h (1 Bft) 0 min 4,6 km/h (1 Bft)
21.08.2009 05:50 24,0 C 17,1 C 0,0 UV-I 0,0 C 56 % 81 % 0 % 1021,6 hPa 0,0 l/m 2,4 km/h (1 Bft) 0 min 6,5 km/h (2 Bft)
21.08.2009 05:54 24,0 C 17,0 C 0,0 UV-I 0,0 C 56 % 81 % 0 % 1021,6 hPa 0,0 l/m 1,4 km/h (1 Bft) 0 min 6,5 km/h (2 Bft)
21.08.2009 05:56 24,0 C 17,1 C 0,0 UV-I 0,0 C 56 % 81 % 0 % 1021,3 hPa 0,0 l/m 1,4 km/h (1 Bft) 0 min 3,8 km/h (1 Bft)
21.08.2009 05:58 23,9 C 17,0 C 0,0 UV-I 0,0 C 56 % 81 % 0 % 1021,3 hPa 0,0 l/m 1,4 km/h (1 Bft) 0 min 3,8 km/h (1 Bft)
21.08.2009 06:00 23,9 C 17,0 C 0,0 UV-I 0,0 C 56 % 81 % 0 % 1021,3 hPa 0,0 l/m 1,0 km/h (0 Bft) 0 min 3,1 km/h (1 Bft)
21.08.2009 06:02 23,9 C 17,0 C 0,0 UV-I 0,0 C 56 % 81 % 0 % 1021,3 hPa 0,0 l/m 0,5 km/h (0 Bft) 0 min 0,0 km/h (0 Bft)
21.08.2009 06:04 23,9 C 17,0 C 0,0 UV-I 0,0 C 56 % 81 % 0 % 1021,3 hPa 0,0 l/m 0,5 km/h (0 Bft) 0 min 0,0 km/h (0 Bft)
21.08.2009 06:06 23,9 C 16,9 C 0,0 UV-I 0,0 C 56 % 81 % 0 % 1021,3 hPa 0,0 l/m 0,5 km/h (0 Bft) 0 min 2,4 km/h (1 Bft)
21.08.2009 06:08 23,9 C 17,0 C 0,0 UV-I 0,0 C 56 % 81 % 0 % 1021,3 hPa 0,0 l/m 0,5 km/h (0 Bft) 0 min 2,4 km/h (1 Bft)
21.08.2009 06:10 23,9 C 16,9 C 0,0 UV-I 0,0 C 56 % 81 % 0 % 1021,3 hPa 0,0 l/m 0,5 km/h (0 Bft) 0 min 0,0 km/h (0 Bft)
21.08.2009 06:12 23,9 C 16,9 C 0,0 UV-I 0,0 C 56 % 81 % 0 % 1021,3 hPa 0,0 l/m 0,5 km/h (0 Bft) 0 min 2,6 km/h (1 Bft)
21.08.2009 06:14 23,9 C 16,9 C 0,0 UV-I 0,0 C 56 % 81 % 0 % 1021,3 hPa 0,0 l/m 0,2 km/h (0 Bft) 0 min 2,6 km/h (1 Bft)
21.08.2009 06:16 23,9 C 16,9 C 0,0 UV-I 0,0 C 56 % 81 % 0 % 1021,2 hPa 0,0 l/m 0,2 km/h (0 Bft) 0 min 0,0 km/h (0 Bft)
21.08.2009 06:18 23,9 C 16,9 C 0,0 UV-I 0,0 C 57 % 81 % 0 % 1021,2 hPa 0,0 l/m 0,5 km/h (0 Bft) 0 min 2,6 km/h (1 Bft)
21.08.2009 06:20 23,9 C 16,8 C 0,0 UV-I 0,0 C 56 % 81 % 0 % 1021,2 hPa 0,0 l/m 0,2 km/h (0 Bft) 0 min 2,6 km/h (1 Bft)
21.08.2009 06:22 23,8 C 16,9 C 0,0 UV-I 0,0 C 57 % 81 % 0 % 1021,2 hPa 0,0 l/m 0,2 km/h (0 Bft) 0 min 0,0 km/h (0 Bft)
21.08.2009 06:24 23,8 C 16,8 C 0,0 UV-I 0,0 C 56 % 81 % 0 % 1021,2 hPa 0,0 l/m 0,5 km/h (0 Bft) 0 min 0,0 km/h (0 Bft)
21.08.2009 06:26 23,8 C 16,8 C 0,0 UV-I 0,0 C 56 % 81 % 0 % 1021,2 hPa 0,0 l/m 0,5 km/h (0 Bft) 0 min 0,0 km/h (0 Bft)
21.08.2009 06:28 23,8 C 16,8 C 0,0 UV-I 0,0 C 56 % 81 % 0 % 1021,2 hPa 0,0 l/m 0,5 km/h (0 Bft) 0 min 0,0 km/h (0 Bft)
21.08.2009 06:30 23,8 C 16,8 C 0,0 UV-I 0,0 C 56 % 81 % 0 % 1021,2 hPa 0,0 l/m 1,0 km/h (0 Bft) 0 min 4,1 km/h (1 Bft)
21.08.2009 06:32 23,8 C 16,8 C 0,0 UV-I 0,0 C 56 % 81 % 0 % 1021,2 hPa 0,0 l/m 1,0 km/h (0 Bft) 0 min 4,8 km/h (1 Bft)
21.08.2009 06:34 23,8 C 16,8 C 0,0 UV-I 0,0 C 56 % 81 % 0 % 1021,2 hPa 0,0 l/m 0,7 km/h (0 Bft) 0 min 4,8 km/h (1 Bft)
21.08.2009 06:36 23,8 C 16,9 C 0,0 UV-I 0,0 C 56 % 81 % 0 % 1021,5 hPa 0,0 l/m 0,7 km/h (0 Bft) 0 min 0,0 km/h (0 Bft)
21.08.2009 06:38 23,8 C 16,8 C 0,0 UV-I 0,0 C 56 % 81 % 0 % 1021,5 hPa 0,0 l/m 0,7 km/h (0 Bft) 0 min 0,0 km/h (0 Bft)
21.08.2009 06:40 23,8 C 16,7 C 0,0 UV-I 0,0 C 56 % 81 % 0 % 1021,5 hPa 0,0 l/m 0,5 km/h (0 Bft) 0 min 0,0 km/h (0 Bft)
21.08.2009 06:42 23,8 C 16,8 C 0,0 UV-I 0,0 C 56 % 81 % 0 % 1021,5 hPa 0,0 l/m 0,2 km/h (0 Bft) 0 min 0,0 km/h (0 Bft)
21.08.2009 06:44 23,8 C 16,8 C 0,0 UV-I 0,0 C 56 % 81 % 0 % 1021,5 hPa 0,0 l/m 0,0 km/h (0 Bft) 0 min 0,0 km/h (0 Bft)
21.08.2009 06:46 23,8 C 16,8 C 0,0 UV-I 0,0 C 56 % 81 % 0 % 1021,5 hPa 0,0 l/m 0,0 km/h (0 Bft) 0 min 0,0 km/h (0 Bft)
21.08.2009 06:48 23,8 C 16,7 C 0,0 UV-I 0,0 C 56 % 81 % 0 % 1021,5 hPa 0,0 l/m 0,0 km/h (0 Bft) 0 min 0,0 km/h (0 Bft)
21.08.2009 06:50 23,8 C 16,7 C 0,0 UV-I 0,0 C 56 % 81 % 0 % 1021,5 hPa 0,0 l/m 0,2 km/h (0 Bft) 0 min 5,1 km/h (1 Bft)
21.08.2009 06:52 23,8 C 16,7 C 0,0 UV-I 0,0 C 56 % 81 % 0 % 1021,5 hPa 0,0 l/m 0,5 km/h (0 Bft) 0 min 5,1 km/h (1 Bft)
21.08.2009 06:54 23,8 C 16,7 C 0,0 UV-I 0,0 C 56 % 80 % 0 % 1021,5 hPa 0,0 l/m 0,7 km/h (0 Bft) 0 min 3,1 km/h (1 Bft)
21.08.2009 06:56 23,8 C 16,7 C 0,0 UV-I 0,0 C 56 % 80 % 0 % 1021,5 hPa 0,0 l/m 0,7 km/h (0 Bft) 0 min 3,4 km/h (1 Bft)
21.08.2009 06:58 23,7 C 16,7 C 0,0 UV-I 0,0 C 56 % 80 % 0 % 1021,5 hPa 0,0 l/m 1,0 km/h (0 Bft) 0 min 3,4 km/h (1 Bft)
21.08.2009 07:00 23,7 C 16,7 C 0,0 UV-I 0,0 C 56 % 80 % 0 % 1021,5 hPa 0,0 l/m 1,0 km/h (0 Bft) 0 min 0,0 km/h (0 Bft)
21.08.2009 07:02 23,7 C 16,6 C 0,0 UV-I 0,0 C 56 % 80 % 0 % 1021,5 hPa 0,0 l/m 1,0 km/h (0 Bft) 0 min 0,0 km/h (0 Bft)
21.08.2009 07:04 23,7 C 16,6 C 0,0 UV-I 0,0 C 56 % 80 % 0 % 1021,5 hPa 0,0 l/m 1,0 km/h (0 Bft) 0 min 0,0 km/h (0 Bft)
21.08.2009 07:06 23,7 C 16,7 C 0,0 UV-I 0,0 C 56 % 80 % 0 % 1021,5 hPa 0,0 l/m 1,0 km/h (0 Bft) 0 min 5,8 km/h (2 Bft)
21.08.2009 07:08 23,7 C 16,6 C 0,0 UV-I 0,0 C 56 % 80 % 0 % 1021,5 hPa 0,0 l/m 1,0 km/h (0 Bft) 0 min 5,8 km/h (2 Bft)
21.08.2009 07:10 23,7 C 16,6 C 0,0 UV-I 0,0 C 56 % 80 % 0 % 1021,5 hPa 0,0 l/m 1,0 km/h (0 Bft) 0 min 0,0 km/h (0 Bft)
21.08.2009 07:12 23,7 C 16,7 C 0,1 UV-I 0,0 C 56 % 80 % 0 % 1021,5 hPa 0,0 l/m 1,2 km/h (1 Bft) 0 min 2,4 km/h (1 Bft)
21.08.2009 07:14 23,7 C 16,7 C 0,1 UV-I 0,0 C 56 % 80 % 0 % 1021,5 hPa 0,0 l/m 1,2 km/h (1 Bft) 0 min 2,4 km/h (1 Bft)
21.08.2009 07:16 23,7 C 16,7 C 0,1 UV-I 0,0 C 56 % 80 % 0 % 1021,8 hPa 0,0 l/m 0,7 km/h (0 Bft) 0 min 0,0 km/h (0 Bft)
21.08.2009 07:18 23,7 C 16,7 C 0,1 UV-I 0,0 C 56 % 80 % 0 % 1021,8 hPa 0,0 l/m 0,7 km/h (0 Bft) 0 min 6,0 km/h (2 Bft)
21.08.2009 07:20 23,7 C 16,6 C 0,1 UV-I 0,0 C 55 % 80 % 0 % 1021,8 hPa 0,0 l/m 1,0 km/h (0 Bft) 0 min 6,0 km/h (2 Bft)
21.08.2009 07:22 23,7 C 16,6 C 0,2 UV-I 0,0 C 56 % 80 % 0 % 1021,8 hPa 0,0 l/m 1,0 km/h (0 Bft) 0 min 0,0 km/h (0 Bft)
21.08.2009 07:24 23,6 C 16,6 C 0,2 UV-I 0,0 C 56 % 80 % 0 % 1021,8 hPa 0,0 l/m 1,0 km/h (0 Bft) 0 min 0,0 km/h (0 Bft)
21.08.2009 07:26 23,7 C 16,6 C 0,2 UV-I 0,0 C 56 % 80 % 0 % 1021,8 hPa 0,0 l/m 1,2 km/h (1 Bft) 0 min 3,6 km/h (1 Bft)
21.08.2009 07:28 23,7 C 16,7 C 0,2 UV-I 0,0 C 56 % 80 % 0 % 1021,8 hPa 0,0 l/m 1,2 km/h (1 Bft) 0 min 3,8 km/h (1 Bft)
21.08.2009 07:30 23,6 C 16,7 C 0,2 UV-I 0,0 C 56 % 80 % 0 % 1021,8 hPa 0,0 l/m 0,5 km/h (0 Bft) 0 min 3,8 km/h (1 Bft)
21.08.2009 07:32 23,7 C 16,6 C 0,2 UV-I 0,0 C 56 % 80 % 0 % 1021,8 hPa 0,0 l/m 1,0 km/h (0 Bft) 0 min 3,6 km/h (1 Bft)
21.08.2009 07:34 23,7 C 16,7 C 0,2 UV-I 0,0 C 56 % 80 % 0 % 1021,8 hPa 0,0 l/m 1,4 km/h (1 Bft) 0 min 8,4 km/h (2 Bft)
21.08.2009 07:36 23,6 C 16,6 C 0,2 UV-I 0,0 C 56 % 80 % 0 % 1021,9 hPa 0,0 l/m 1,4 km/h (1 Bft) 0 min 8,4 km/h (2 Bft)
21.08.2009 07:38 23,6 C 16,7 C 0,2 UV-I 0,0 C 56 % 80 % 0 % 1021,9 hPa 0,0 l/m 1,7 km/h (1 Bft) 0 min 2,4 km/h (1 Bft)
21.08.2009 07:40 23,6 C 16,6 C 0,2 UV-I 0,0 C 56 % 80 % 0 % 1021,9 hPa 0,0 l/m 1,4 km/h (1 Bft) 0 min 0,0 km/h (0 Bft)
21.08.2009 07:42 23,6 C 16,7 C 0,2 UV-I 0,0 C 56 % 80 % 0 % 1021,9 hPa 0,0 l/m 1,4 km/h (1 Bft) 0 min 5,8 km/h (2 Bft)
21.08.2009 07:44 23,6 C 16,7 C 0,2 UV-I 0,0 C 55 % 80 % 0 % 1021,9 hPa 0,0 l/m 1,4 km/h (1 Bft) 0 min 5,8 km/h (2 Bft)
21.08.2009 07:46 23,6 C 16,7 C 0,2 UV-I 0,0 C 55 % 80 % 0 % 1021,9 hPa 0,0 l/m 1,2 km/h (1 Bft) 0 min 0,0 km/h (0 Bft)
21.08.2009 07:48 23,6 C 16,7 C 0,3 UV-I 0,0 C 56 % 79 % 0 % 1021,9 hPa 0,0 l/m 1,2 km/h (1 Bft) 0 min 0,0 km/h (0 Bft)
21.08.2009 07:50 23,6 C 16,7 C 0,3 UV-I 0,0 C 55 % 80 % 0 % 1021,9 hPa 0,0 l/m 1,7 km/h (1 Bft) 0 min 3,4 km/h (1 Bft)
21.08.2009 07:52 23,6 C 16,7 C 0,2 UV-I 0,0 C 55 % 80 % 0 % 1021,9 hPa 0,0 l/m 1,7 km/h (1 Bft) 0 min 3,4 km/h (1 Bft)
21.08.2009 07:54 23,6 C 16,7 C 0,2 UV-I 0,0 C 55 % 80 % 0 % 1021,9 hPa 0,0 l/m 1,2 km/h (1 Bft) 0 min 2,4 km/h (1 Bft)
21.08.2009 07:56 23,6 C 16,7 C 0,2 UV-I 0,0 C 55 % 80 % 0 % 1021,6 hPa 0,0 l/m 1,0 km/h (0 Bft) 0 min 0,0 km/h (0 Bft)
21.08.2009 07:58 23,6 C 16,7 C 0,3 UV-I 0,0 C 55 % 80 % 0 % 1021,6 hPa 0,0 l/m 1,0 km/h (0 Bft) 0 min 3,4 km/h (1 Bft)
21.08.2009 08:00 23,6 C 16,7 C 0,3 UV-I 0,0 C 55 % 80 % 0 % 1021,6 hPa 0,0 l/m 0,7 km/h (0 Bft) 0 min 3,4 km/h (1 Bft)
21.08.2009 08:02 23,6 C 16,7 C 0,3 UV-I 0,0 C 55 % 79 % 0 % 1021,6 hPa 0,0 l/m 1,0 km/h (0 Bft) 0 min 2,6 km/h (1 Bft)
21.08.2009 08:04 23,6 C 16,7 C 0,3 UV-I 0,0 C 55 % 79 % 0 % 1021,6 hPa 0,0 l/m 1,0 km/h (0 Bft) 0 min 2,6 km/h (1 Bft)
21.08.2009 08:06 23,6 C 16,7 C 0,3 UV-I 0,0 C 55 % 79 % 0 % 1021,6 hPa 0,0 l/m 1,0 km/h (0 Bft) 0 min 0,0 km/h (0 Bft)
21.08.2009 08:08 23,6 C 16,7 C 0,5 UV-I 0,0 C 55 % 79 % 0 % 1021,6 hPa 0,0 l/m 1,0 km/h (0 Bft) 0 min 0,0 km/h (0 Bft)
21.08.2009 08:10 23,6 C 16,7 C 0,5 UV-I 0,0 C 55 % 79 % 0 % 1021,6 hPa 0,0 l/m 0,7 km/h (0 Bft) 0 min 0,0 km/h (0 Bft)
21.08.2009 08:12 23,6 C 16,8 C 0,6 UV-I 0,0 C 55 % 80 % 0 % 1021,6 hPa 0,0 l/m 0,5 km/h (0 Bft) 0 min 0,0 km/h (0 Bft)
21.08.2009 08:14 23,6 C 16,8 C 0,6 UV-I 0,0 C 55 % 80 % 0 % 1021,6 hPa 0,0 l/m 0,2 km/h (0 Bft) 0 min 0,0 km/h (0 Bft)
21.08.2009 08:16 23,6 C 16,8 C 0,6 UV-I 0,0 C 55 % 80 % 0 % 1021,5 hPa 0,0 l/m 0,2 km/h (0 Bft) 0 min 0,0 km/h (0 Bft)
21.08.2009 08:18 23,6 C 16,8 C 0,6 UV-I 0,0 C 55 % 79 % 0 % 1021,5 hPa 0,0 l/m 0,5 km/h (0 Bft) 0 min 0,0 km/h (0 Bft)
21.08.2009 08:20 23,6 C 16,8 C 0,6 UV-I 0,0 C 55 % 79 % 0 % 1021,5 hPa 0,0 l/m 0,5 km/h (0 Bft) 0 min 0,0 km/h (0 Bft)
21.08.2009 08:22 23,6 C 16,8 C 0,6 UV-I 0,0 C 55 % 79 % 0 % 1021,5 hPa 0,0 l/m 0,7 km/h (0 Bft) 0 min 8,2 km/h (2 Bft)
21.08.2009 08:24 23,6 C 16,9 C 0,6 UV-I 0,0 C 55 % 79 % 0 % 1021,5 hPa 0,0 l/m 0,7 km/h (0 Bft) 0 min 8,2 km/h (2 Bft)
21.08.2009 08:26 23,6 C 16,9 C 0,6 UV-I 0,0 C 55 % 79 % 0 % 1021,5 hPa 0,0 l/m 1,0 km/h (0 Bft) 0 min 0,0 km/h (0 Bft)
21.08.2009 08:28 23,6 C 16,9 C 0,8 UV-I 0,0 C 55 % 79 % 0 % 1021,5 hPa 0,0 l/m 1,0 km/h (0 Bft) 0 min 10,6 km/h (2 Bft)
21.08.2009 08:30 23,6 C 16,9 C 0,8 UV-I 0,0 C 55 % 79 % 0 % 1021,5 hPa 0,0 l/m 1,2 km/h (1 Bft) 0 min 10,6 km/h (2 Bft)
21.08.2009 08:32 23,6 C 16,8 C 0,8 UV-I 0,0 C 55 % 79 % 0 % 1021,5 hPa 0,0 l/m 1,0 km/h (0 Bft) 0 min 10,6 km/h (2 Bft)
21.08.2009 08:34 23,6 C 16,8 C 0,8 UV-I 0,0 C 55 % 79 % 0 % 1021,5 hPa 0,0 l/m 0,7 km/h (0 Bft) 0 min 0,0 km/h (0 Bft)
21.08.2009 08:36 23,6 C 16,8 C 0,8 UV-I 0,0 C 55 % 79 % 0 % 1021,9 hPa 0,0 l/m 1,0 km/h (0 Bft) 0 min 3,8 km/h (1 Bft)
21.08.2009 08:38 23,6 C 16,8 C 0,8 UV-I 0,0 C 55 % 79 % 0 % 1021,9 hPa 0,0 l/m 0,7 km/h (0 Bft) 0 min 3,8 km/h (1 Bft)
21.08.2009 08:40 23,6 C 16,9 C 0,8 UV-I 0,0 C 55 % 80 % 0 % 1021,9 hPa 0,0 l/m 1,0 km/h (0 Bft) 0 min 5,5 km/h (1 Bft)
21.08.2009 08:42 23,6 C 16,8 C 0,7 UV-I 0,0 C 55 % 79 % 0 % 1021,9 hPa 0,0 l/m 1,2 km/h (1 Bft) 0 min 5,5 km/h (1 Bft)
21.08.2009 08:44 23,6 C 16,9 C 0,7 UV-I 0,0 C 55 % 79 % 0 % 1021,9 hPa 0,0 l/m 1,4 km/h (1 Bft) 0 min 2,4 km/h (1 Bft)
21.08.2009 08:46 23,6 C 16,8 C 0,7 UV-I 0,0 C 55 % 79 % 0 % 1021,9 hPa 0,0 l/m 1,2 km/h (1 Bft) 0 min 0,0 km/h (0 Bft)
21.08.2009 08:48 23,6 C 16,9 C 0,8 UV-I 0,0 C 55 % 79 % 0 % 1021,9 hPa 0,0 l/m 1,4 km/h (1 Bft) 0 min 2,4 km/h (1 Bft)
21.08.2009 08:50 23,6 C 16,9 C 0,8 UV-I 0,0 C 55 % 79 % 0 % 1021,9 hPa 0,0 l/m 1,4 km/h (1 Bft) 0 min 3,1 km/h (1 Bft)
21.08.2009 08:52 23,6 C 16,9 C 0,8 UV-I 0,0 C 55 % 79 % 0 % 1021,9 hPa 0,0 l/m 1,2 km/h (1 Bft) 0 min 3,1 km/h (1 Bft)
21.08.2009 08:54 23,6 C 16,9 C 0,8 UV-I 0,0 C 55 % 80 % 0 % 1021,9 hPa 0,0 l/m 1,4 km/h (1 Bft) 0 min 6,5 km/h (2 Bft)
21.08.2009 08:56 23,6 C 16,8 C 0,8 UV-I 0,0 C 55 % 80 % 0 % 1022,1 hPa 0,0 l/m 1,7 km/h (1 Bft) 0 min 6,5 km/h (2 Bft)
21.08.2009 08:58 23,6 C 16,8 C 0,9 UV-I 0,0 C 55 % 80 % 0 % 1022,1 hPa 0,0 l/m 1,2 km/h (1 Bft) 0 min 2,4 km/h (1 Bft)
21.08.2009 09:00 23,6 C 16,8 C 0,9 UV-I 0,0 C 55 % 80 % 0 % 1022,1 hPa 0,0 l/m 1,0 km/h (0 Bft) 0 min 3,1 km/h (1 Bft)
21.08.2009 09:02 23,6 C 16,9 C 1,0 UV-I 0,0 C 55 % 80 % 0 % 1022,1 hPa 0,0 l/m 1,0 km/h (0 Bft) 0 min 7,2 km/h (2 Bft)
21.08.2009 09:04 23,6 C 16,9 C 1,0 UV-I 0,1 C 55 % 80 % 3 % 1022,1 hPa 0,0 l/m 1,9 km/h (1 Bft) 0 min 7,2 km/h (2 Bft)
21.08.2009 09:06 23,6 C 16,9 C 1,0 UV-I 0,1 C 55 % 80 % 3 % 1022,1 hPa 0,0 l/m 1,9 km/h (1 Bft) 0 min 7,2 km/h (2 Bft)
21.08.2009 09:08 23,6 C 16,9 C 1,3 UV-I 0,2 C 55 % 80 % 6 % 1022,1 hPa 0,0 l/m 2,2 km/h (1 Bft) 0 min 3,1 km/h (1 Bft)
21.08.2009 09:10 23,6 C 16,9 C 1,3 UV-I 0,4 C 55 % 80 % 11 % 1022,1 hPa 0,0 l/m 2,6 km/h (1 Bft) 0 min 3,1 km/h (1 Bft)
21.08.2009 09:12 23,6 C 16,9 C 1,4 UV-I 0,4 C 56 % 80 % 11 % 1022,1 hPa 0,0 l/m 2,4 km/h (1 Bft) 0 min 12,3 km/h (3 Bft)
21.08.2009 09:14 23,6 C 17,1 C 1,4 UV-I 0,4 C 56 % 80 % 11 % 1022,1 hPa 0,0 l/m 2,4 km/h (1 Bft) 0 min 9,6 km/h (2 Bft)
21.08.2009 09:16 23,6 C 17,0 C 1,4 UV-I 0,6 C 56 % 80 % 17 % 1022,4 hPa 0,0 l/m 2,9 km/h (1 Bft) 0 min 9,6 km/h (2 Bft)
21.08.2009 09:18 23,6 C 17,1 C 1,6 UV-I 0,5 C 56 % 79 % 14 % 1022,4 hPa 0,0 l/m 2,9 km/h (1 Bft) 0 min 3,8 km/h (1 Bft)
21.08.2009 09:20 23,6 C 17,1 C 1,6 UV-I 0,5 C 55 % 79 % 14 % 1022,4 hPa 0,0 l/m 2,9 km/h (1 Bft) 0 min 3,8 km/h (1 Bft)
21.08.2009 09:22 23,6 C 17,1 C 1,5 UV-I 0,5 C 55 % 79 % 14 % 1022,4 hPa 0,0 l/m 3,1 km/h (1 Bft) 0 min 8,4 km/h (2 Bft)
21.08.2009 09:24 23,6 C 17,1 C 1,5 UV-I 0,4 C 56 % 79 % 11 % 1022,4 hPa 0,0 l/m 3,4 km/h (1 Bft) 0 min 8,4 km/h (2 Bft)
21.08.2009 09:26 23,6 C 17,2 C 1,5 UV-I 0,3 C 55 % 79 % 9 % 1022,4 hPa 0,0 l/m 2,9 km/h (1 Bft) 0 min 4,8 km/h (1 Bft)
21.08.2009 09:28 23,6 C 17,2 C 1,6 UV-I 0,3 C 55 % 79 % 9 % 1022,4 hPa 0,0 l/m 2,6 km/h (1 Bft) 0 min 4,8 km/h (1 Bft)
21.08.2009 09:30 23,6 C 17,2 C 1,6 UV-I 0,4 C 55 % 79 % 11 % 1022,4 hPa 0,0 l/m 2,2 km/h (1 Bft) 0 min 4,6 km/h (1 Bft)
21.08.2009 09:32 23,6 C 17,2 C 2,0 UV-I 0,7 C 56 % 79 % 20 % 1022,4 hPa 0,0 l/m 2,6 km/h (1 Bft) 0 min 4,1 km/h (1 Bft)
21.08.2009 09:34 23,6 C 17,3 C 2,0 UV-I 1,0 C 56 % 79 % 29 % 1022,4 hPa 0,0 l/m 3,4 km/h (1 Bft) 0 min 8,9 km/h (2 Bft)
21.08.2009 09:36 23,6 C 17,5 C 2,0 UV-I 1,2 C 56 % 79 % 34 % 1022,4 hPa 0,0 l/m 3,4 km/h (1 Bft) 0 min 8,9 km/h (2 Bft)
21.08.2009 09:38 23,6 C 17,5 C 2,3 UV-I 1,6 C 56 % 79 % 46 % 1022,4 hPa 0,0 l/m 3,4 km/h (1 Bft) 0 min 4,6 km/h (1 Bft)
21.08.2009 09:40 23,6 C 17,6 C 2,3 UV-I 1,8 C 56 % 79 % 51 % 1022,4 hPa 0,0 l/m 3,6 km/h (1 Bft) 0 min 8,2 km/h (2 Bft)
21.08.2009 09:42 23,6 C 17,6 C 2,4 UV-I 1,9 C 56 % 79 % 54 % 1022,4 hPa 0,0 l/m 4,6 km/h (1 Bft) 0 min 11,3 km/h (2 Bft)
21.08.2009 09:44 23,6 C 17,7 C 2,4 UV-I 1,9 C 56 % 79 % 54 % 1022,4 hPa 0,0 l/m 4,3 km/h (1 Bft) 0 min 11,3 km/h (2 Bft)
21.08.2009 09:46 23,6 C 17,7 C 2,4 UV-I 1,9 C 56 % 79 % 54 % 1022,4 hPa 0,0 l/m 4,1 km/h (1 Bft) 0 min 11,3 km/h (2 Bft)
21.08.2009 09:48 23,6 C 17,7 C 2,4 UV-I 1,9 C 56 % 78 % 54 % 1022,4 hPa 0,0 l/m 4,1 km/h (1 Bft) 0 min 5,5 km/h (1 Bft)
21.08.2009 09:50 23,6 C 17,9 C 2,4 UV-I 1,7 C 56 % 78 % 49 % 1022,4 hPa 0,0 l/m 3,8 km/h (1 Bft) 0 min 5,5 km/h (1 Bft)
21.08.2009 09:54 23,7 C 17,9 C 1,8 UV-I 1,6 C 56 % 78 % 46 % 1022,4 hPa 0,0 l/m 3,4 km/h (1 Bft) 0 min 13,0 km/h (3 Bft)
21.08.2009 09:56 23,6 C 17,8 C 1,8 UV-I 1,6 C 56 % 78 % 46 % 1022,8 hPa 0,0 l/m 3,1 km/h (1 Bft) 0 min 7,7 km/h (2 Bft)
21.08.2009 09:58 23,7 C 17,9 C 1,7 UV-I 1,5 C 56 % 78 % 43 % 1022,8 hPa 0,0 l/m 3,1 km/h (1 Bft) 0 min 7,7 km/h (2 Bft)
21.08.2009 10:02 23,7 C 17,9 C 1,9 UV-I 1,4 C 56 % 78 % 40 % 1022,8 hPa 0,0 l/m 3,4 km/h (1 Bft) 0 min 7,2 km/h (2 Bft)
21.08.2009 10:04 23,7 C 17,9 C 1,9 UV-I 1,4 C 56 % 78 % 40 % 1022,8 hPa 0,0 l/m 2,6 km/h (1 Bft) 0 min 7,2 km/h (2 Bft)
21.08.2009 10:06 23,7 C 18,0 C 1,9 UV-I 1,5 C 56 % 78 % 43 % 1022,8 hPa 0,0 l/m 2,6 km/h (1 Bft) 0 min 7,2 km/h (2 Bft)
21.08.2009 10:08 23,7 C 18,0 C 2,5 UV-I 1,6 C 56 % 78 % 46 % 1022,8 hPa 0,0 l/m 2,6 km/h (1 Bft) 0 min 7,2 km/h (2 Bft)
21.08.2009 10:10 23,7 C 18,1 C 2,5 UV-I 2,0 C 56 % 77 % 57 % 1022,8 hPa 0,0 l/m 2,9 km/h (1 Bft) 0 min 3,8 km/h (1 Bft)
21.08.2009 10:12 23,7 C 18,1 C 2,7 UV-I 2,4 C 56 % 77 % 69 % 1022,8 hPa 0,0 l/m 2,6 km/h (1 Bft) 0 min 7,5 km/h (2 Bft)
21.08.2009 10:14 23,7 C 18,3 C 2,7 UV-I 2,2 C 56 % 77 % 63 % 1022,8 hPa 0,0 l/m 2,6 km/h (1 Bft) 0 min 7,5 km/h (2 Bft)
21.08.2009 10:16 23,7 C 18,3 C 2,7 UV-I 2,2 C 56 % 77 % 63 % 1022,8 hPa 0,0 l/m 3,4 km/h (1 Bft) 0 min 4,8 km/h (1 Bft)
21.08.2009 10:18 23,7 C 18,3 C 4,8 UV-I 2,5 C 56 % 77 % 71 % 1022,8 hPa 0,0 l/m 3,1 km/h (1 Bft) 0 min 5,8 km/h (2 Bft)
21.08.2009 10:20 23,7 C 18,4 C 4,8 UV-I 2,8 C 56 % 77 % 80 % 1022,8 hPa 0,0 l/m 2,9 km/h (1 Bft) 0 min 7,2 km/h (2 Bft)
21.08.2009 10:22 23,7 C 18,4 C 7,3 UV-I 3,5 C 56 % 77 % 100 % 1022,8 hPa 0,0 l/m 3,6 km/h (1 Bft) 2 min 10,3 km/h (2 Bft)
21.08.2009 10:26 23,8 C 18,7 C 7,3 UV-I 3,6 C 56 % 76 % 100 % 1022,8 hPa 0,0 l/m 3,6 km/h (1 Bft) 2 min 10,3 km/h (2 Bft)
21.08.2009 10:28 23,8 C 18,7 C 6,5 UV-I 3,6 C 56 % 76 % 100 % 1022,8 hPa 0,0 l/m 3,6 km/h (1 Bft) 2 min 5,5 km/h (1 Bft)
21.08.2009 10:30 23,8 C 18,8 C 6,5 UV-I 3,4 C 56 % 75 % 97 % 1022,8 hPa 0,0 l/m 3,8 km/h (1 Bft) 2 min 8,7 km/h (2 Bft)
21.08.2009 10:32 23,8 C 18,8 C 3,0 UV-I 3,0 C 56 % 75 % 86 % 1022,8 hPa 0,0 l/m 4,1 km/h (1 Bft) 2 min 8,7 km/h (2 Bft)
21.08.2009 10:34 23,8 C 18,9 C 3,0 UV-I 2,5 C 56 % 75 % 71 % 1022,8 hPa 0,0 l/m 3,8 km/h (1 Bft) 0 min 6,5 km/h (2 Bft)
21.08.2009 10:36 23,8 C 18,8 C 3,0 UV-I 2,4 C 56 % 75 % 69 % 1022,7 hPa 0,0 l/m 4,1 km/h (1 Bft) 0 min 7,2 km/h (2 Bft)
21.08.2009 10:38 23,8 C 18,8 C 2,5 UV-I 2,1 C 56 % 75 % 60 % 1022,7 hPa 0,0 l/m 4,6 km/h (1 Bft) 0 min 5,5 km/h (1 Bft)
21.08.2009 10:40 23,8 C 18,7 C 2,5 UV-I 1,9 C 55 % 74 % 54 % 1022,7 hPa 0,0 l/m 4,6 km/h (1 Bft) 0 min 8,2 km/h (2 Bft)
21.08.2009 10:42 23,8 C 18,7 C 3,0 UV-I 1,7 C 55 % 75 % 49 % 1022,7 hPa 0,0 l/m 4,8 km/h (1 Bft) 0 min 14,4 km/h (3 Bft)
21.08.2009 10:44 23,8 C 18,8 C 3,0 UV-I 1,5 C 55 % 74 % 43 % 1022,7 hPa 0,0 l/m 4,6 km/h (1 Bft) 0 min 14,4 km/h (3 Bft)
21.08.2009 10:46 23,8 C 18,7 C 3,0 UV-I 1,5 C 55 % 74 % 43 % 1022,7 hPa 0,0 l/m 4,8 km/h (1 Bft) 0 min 12,5 km/h (3 Bft)
21.08.2009 10:48 23,8 C 18,7 C 3,3 UV-I 1,4 C 55 % 73 % 40 % 1022,7 hPa 0,0 l/m 5,1 km/h (1 Bft) 0 min 11,3 km/h (2 Bft)
21.08.2009 10:50 23,8 C 18,7 C 3,3 UV-I 1,1 C 55 % 73 % 31 % 1022,7 hPa 0,0 l/m 5,1 km/h (1 Bft) 0 min 7,0 km/h (2 Bft)
21.08.2009 10:52 23,8 C 18,7 C 2,9 UV-I 1,1 C 55 % 73 % 31 % 1022,7 hPa 0,0 l/m 4,8 km/h (1 Bft) 0 min 14,4 km/h (3 Bft)
21.08.2009 10:54 23,8 C 18,7 C 2,9 UV-I 1,0 C 55 % 73 % 29 % 1022,7 hPa 0,0 l/m 4,6 km/h (1 Bft) 0 min 6,3 km/h (2 Bft)
21.08.2009 10:56 23,8 C 18,7 C 2,9 UV-I 1,3 C 55 % 73 % 37 % 1022,9 hPa 0,0 l/m 3,8 km/h (1 Bft) 0 min 5,1 km/h (1 Bft)
21.08.2009 10:58 23,8 C 18,7 C 4,5 UV-I 1,5 C 55 % 74 % 43 % 1022,9 hPa 0,0 l/m 3,4 km/h (1 Bft) 0 min 8,7 km/h (2 Bft)
21.08.2009 11:00 23,8 C 18,8 C 4,5 UV-I 1,6 C 55 % 74 % 46 % 1022,9 hPa 0,0 l/m 3,4 km/h (1 Bft) 0 min 8,7 km/h (2 Bft)
21.08.2009 11:02 23,8 C 18,9 C 5,6 UV-I 1,6 C 55 % 73 % 46 % 1022,9 hPa 0,0 l/m 3,4 km/h (1 Bft) 0 min 3,4 km/h (1 Bft)
21.08.2009 11:06 23,8 C 18,9 C 5,6 UV-I 1,7 C 55 % 73 % 49 % 1022,9 hPa 0,0 l/m 3,4 km/h (1 Bft) 0 min 4,6 km/h (1 Bft)
21.08.2009 11:08 23,8 C 18,8 C 4,2 UV-I 1,7 C 55 % 73 % 49 % 1022,9 hPa 0,0 l/m 3,6 km/h (1 Bft) 0 min 8,9 km/h (2 Bft)
21.08.2009 11:12 23,8 C 18,9 C 4,2 UV-I 1,6 C 55 % 72 % 46 % 1022,9 hPa 0,0 l/m 3,6 km/h (1 Bft) 0 min 8,9 km/h (2 Bft)
21.08.2009 11:14 23,8 C 18,9 C 4,2 UV-I 1,9 C 55 % 72 % 54 % 1022,9 hPa 0,0 l/m 3,4 km/h (1 Bft) 0 min 9,4 km/h (2 Bft)
21.08.2009 11:16 23,8 C 18,9 C 4,2 UV-I 1,9 C 55 % 72 % 54 % 1023,0 hPa 0,0 l/m 3,6 km/h (1 Bft) 0 min 9,4 km/h (2 Bft)
21.08.2009 11:18 23,8 C 18,9 C 2,3 UV-I 1,5 C 55 % 72 % 43 % 1023,0 hPa 0,0 l/m 3,8 km/h (1 Bft) 0 min 7,7 km/h (2 Bft)
21.08.2009 11:20 23,8 C 19,1 C 2,3 UV-I 1,2 C 55 % 72 % 34 % 1023,0 hPa 0,0 l/m 3,6 km/h (1 Bft) 0 min 7,7 km/h (2 Bft)
21.08.2009 11:22 23,8 C 19,1 C 3,0 UV-I 1,4 C 55 % 72 % 40 % 1023,0 hPa 0,0 l/m 2,9 km/h (1 Bft) 0 min 4,3 km/h (1 Bft)
21.08.2009 11:24 23,8 C 19,0 C 3,0 UV-I 1,6 C 55 % 72 % 46 % 1023,0 hPa 0,0 l/m 3,4 km/h (1 Bft) 0 min 6,7 km/h (2 Bft)
21.08.2009 11:26 23,8 C 19,1 C 3,0 UV-I 2,3 C 55 % 71 % 66 % 1023,0 hPa 0,0 l/m 3,1 km/h (1 Bft) 0 min 6,7 km/h (2 Bft)
21.08.2009 11:28 23,8 C 19,2 C 11,8 UV-I 3,4 C 55 % 71 % 97 % 1023,0 hPa 0,0 l/m 2,6 km/h (1 Bft) 2 min 3,4 km/h (1 Bft)
21.08.2009 11:30 23,8 C 19,5 C 11,8 UV-I 4,2 C 55 % 70 % 100 % 1023,0 hPa 0,0 l/m 3,6 km/h (1 Bft) 2 min 12,3 km/h (3 Bft)
21.08.2009 11:32 23,8 C 19,5 C 11,1 UV-I 4,4 C 55 % 70 % 100 % 1023,0 hPa 0,0 l/m 4,3 km/h (1 Bft) 2 min 12,3 km/h (3 Bft)
21.08.2009 11:34 23,8 C 19,6 C 11,1 UV-I 4,5 C 55 % 70 % 100 % 1023,0 hPa 0,0 l/m 4,6 km/h (1 Bft) 2 min 5,8 km/h (2 Bft)
21.08.2009 11:38 23,8 C 19,9 C 9,8 UV-I 4,5 C 54 % 70 % 100 % 1022,9 hPa 0,0 l/m 4,6 km/h (1 Bft) 2 min 7,9 km/h (2 Bft)
21.08.2009 11:40 23,8 C 20,0 C 9,8 UV-I 4,8 C 54 % 69 % 100 % 1022,9 hPa 0,0 l/m 4,1 km/h (1 Bft) 2 min 2,6 km/h (1 Bft)
21.08.2009 11:42 23,8 C 20,1 C 9,6 UV-I 4,6 C 54 % 69 % 100 % 1022,9 hPa 0,0 l/m 3,1 km/h (1 Bft) 2 min 2,6 km/h (1 Bft)
21.08.2009 11:44 23,8 C 20,1 C 9,6 UV-I 4,8 C 54 % 68 % 100 % 1022,9 hPa 0,0 l/m 2,9 km/h (1 Bft) 2 min 7,0 km/h (2 Bft)
21.08.2009 11:46 23,8 C 20,1 C 9,6 UV-I 5,0 C 54 % 66 % 100 % 1022,9 hPa 0,0 l/m 3,6 km/h (1 Bft) 2 min 11,8 km/h (2 Bft)
21.08.2009 11:48 23,8 C 20,3 C 7,8 UV-I 4,5 C 54 % 66 % 100 % 1022,9 hPa 0,0 l/m 3,8 km/h (1 Bft) 2 min 11,8 km/h (2 Bft)
21.08.2009 11:50 23,8 C 20,3 C 7,8 UV-I 4,3 C 54 % 67 % 100 % 1022,9 hPa 0,0 l/m 3,8 km/h (1 Bft) 2 min 7,5 km/h (2 Bft)
21.08.2009 11:52 23,8 C 20,3 C 6,6 UV-I 4,4 C 54 % 66 % 100 % 1022,9 hPa 0,0 l/m 4,8 km/h (1 Bft) 2 min 6,5 km/h (2 Bft)
21.08.2009 11:54 23,8 C 20,4 C 6,6 UV-I 4,1 C 54 % 66 % 100 % 1022,9 hPa 0,0 l/m 5,1 km/h (1 Bft) 2 min 6,5 km/h (2 Bft)
21.08.2009 11:56 23,8 C 20,4 C 6,6 UV-I 4,0 C 54 % 65 % 100 % 1022,7 hPa 0,0 l/m 4,6 km/h (1 Bft) 2 min 5,1 km/h (1 Bft)
21.08.2009 11:58 23,9 C 20,5 C 7,9 UV-I 4,1 C 54 % 66 % 100 % 1022,7 hPa 0,0 l/m 3,8 km/h (1 Bft) 2 min 3,8 km/h (1 Bft)
21.08.2009 12:00 23,9 C 20,6 C 7,9 UV-I 3,9 C 54 % 65 % 100 % 1022,7 hPa 0,0 l/m 3,1 km/h (1 Bft) 2 min 3,6 km/h (1 Bft)
21.08.2009 12:04 23,9 C 20,6 C 7,9 UV-I 3,9 C 54 % 65 % 100 % 1022,7 hPa 0,0 l/m 3,8 km/h (1 Bft) 2 min 7,5 km/h (2 Bft)
21.08.2009 12:06 23,9 C 20,7 C 7,9 UV-I 4,1 C 54 % 63 % 100 % 1022,7 hPa 0,0 l/m 4,1 km/h (1 Bft) 2 min 9,9 km/h (2 Bft)
21.08.2009 12:08 23,9 C 20,8 C 11,9 UV-I 4,3 C 54 % 64 % 100 % 1022,7 hPa 0,0 l/m 4,1 km/h (1 Bft) 2 min 9,9 km/h (2 Bft)
21.08.2009 12:10 23,9 C 21,1 C 11,9 UV-I 4,4 C 53 % 64 % 100 % 1022,7 hPa 0,0 l/m 4,6 km/h (1 Bft) 2 min 3,8 km/h (1 Bft)
21.08.2009 12:12 23,9 C 21,1 C 10,6 UV-I 5,1 C 54 % 63 % 100 % 1022,7 hPa 0,0 l/m 4,3 km/h (1 Bft) 2 min 5,1 km/h (1 Bft)
21.08.2009 12:16 23,9 C 21,2 C 10,6 UV-I 4,8 C 53 % 63 % 100 % 1022,8 hPa 0,0 l/m 4,6 km/h (1 Bft) 2 min 8,7 km/h (2 Bft)
21.08.2009 12:18 24,0 C 21,3 C 7,7 UV-I 4,1 C 54 % 63 % 100 % 1022,8 hPa 0,0 l/m 4,3 km/h (1 Bft) 2 min 5,5 km/h (1 Bft)
21.08.2009 12:20 24,0 C 21,2 C 7,7 UV-I 4,2 C 54 % 62 % 100 % 1022,8 hPa 0,0 l/m 4,1 km/h (1 Bft) 2 min 3,6 km/h (1 Bft)
21.08.2009 12:22 24,0 C 21,3 C 9,5 UV-I 4,1 C 54 % 61 % 100 % 1022,8 hPa 0,0 l/m 4,1 km/h (1 Bft) 2 min 5,8 km/h (2 Bft)
21.08.2009 12:24 24,0 C 21,4 C 9,5 UV-I 4,4 C 54 % 61 % 100 % 1022,8 hPa 0,0 l/m 3,6 km/h (1 Bft) 2 min 7,2 km/h (2 Bft)
21.08.2009 12:26 24,0 C 21,5 C 9,5 UV-I 4,5 C 54 % 60 % 100 % 1022,8 hPa 0,0 l/m 3,8 km/h (1 Bft) 2 min 7,2 km/h (2 Bft)
21.08.2009 12:30 24,0 C 21,6 C 8,2 UV-I 3,9 C 53 % 60 % 100 % 1022,8 hPa 0,0 l/m 4,3 km/h (1 Bft) 2 min 13,2 km/h (3 Bft)
21.08.2009 12:32 24,0 C 21,6 C 10,9 UV-I 4,0 C 53 % 60 % 100 % 1022,8 hPa 0,0 l/m 4,3 km/h (1 Bft) 2 min 13,2 km/h (3 Bft)
21.08.2009 12:34 24,0 C 21,7 C 10,9 UV-I 4,3 C 53 % 59 % 100 % 1022,8 hPa 0,0 l/m 5,3 km/h (1 Bft) 2 min 2,6 km/h (1 Bft)
21.08.2009 12:36 24,0 C 21,9 C 10,9 UV-I 4,4 C 53 % 58 % 100 % 1022,7 hPa 0,0 l/m 5,3 km/h (1 Bft) 2 min 8,2 km/h (2 Bft)
21.08.2009 12:38 24,0 C 21,9 C 10,9 UV-I 4,5 C 53 % 57 % 100 % 1022,7 hPa 0,0 l/m 5,5 km/h (1 Bft) 2 min 8,2 km/h (2 Bft)
21.08.2009 12:40 24,0 C 21,9 C 10,9 UV-I 4,6 C 53 % 57 % 100 % 1022,7 hPa 0,0 l/m 5,3 km/h (1 Bft) 2 min 6,3 km/h (2 Bft)
21.08.2009 12:42 24,0 C 22,1 C 10,5 UV-I 4,6 C 53 % 57 % 100 % 1022,7 hPa 0,0 l/m 4,8 km/h (1 Bft) 2 min 16,6 km/h (3 Bft)
21.08.2009 12:44 24,0 C 22,1 C 10,5 UV-I 5,2 C 52 % 55 % 100 % 1022,7 hPa 0,0 l/m 4,6 km/h (1 Bft) 2 min 14,2 km/h (3 Bft)
21.08.2009 12:46 24,0 C 22,3 C 10,5 UV-I 5,0 C 52 % 55 % 100 % 1022,7 hPa 0,0 l/m 5,1 km/h (1 Bft) 2 min 6,5 km/h (2 Bft)
21.08.2009 12:50 24,1 C 22,3 C 10,5 UV-I 5,2 C 52 % 56 % 100 % 1022,7 hPa 0,0 l/m 4,3 km/h (1 Bft) 2 min 12,3 km/h (3 Bft)
21.08.2009 12:52 24,1 C 22,5 C 10,4 UV-I 5,1 C 52 % 56 % 100 % 1022,7 hPa 0,0 l/m 4,6 km/h (1 Bft) 2 min 12,3 km/h (3 Bft)
21.08.2009 12:54 24,1 C 22,7 C 10,4 UV-I 4,9 C 52 % 55 % 100 % 1022,7 hPa 0,0 l/m 4,6 km/h (1 Bft) 2 min 4,8 km/h (1 Bft)
21.08.2009 12:56 24,1 C 22,7 C 10,4 UV-I 5,1 C 52 % 53 % 100 % 1022,6 hPa 0,0 l/m 4,8 km/h (1 Bft) 2 min 7,5 km/h (2 Bft)
21.08.2009 12:58 24,2 C 22,7 C 10,5 UV-I 5,1 C 52 % 53 % 100 % 1022,6 hPa 0,0 l/m 4,6 km/h (1 Bft) 2 min 7,5 km/h (2 Bft)
21.08.2009 13:00 24,2 C 22,7 C 10,5 UV-I 5,2 C 52 % 54 % 100 % 1022,6 hPa 0,0 l/m 4,8 km/h (1 Bft) 2 min 10,3 km/h (2 Bft)
21.08.2009 13:04 24,2 C 23,0 C 9,8 UV-I 5,1 C 52 % 53 % 100 % 1022,6 hPa 0,0 l/m 4,8 km/h (1 Bft) 2 min 6,5 km/h (2 Bft)
21.08.2009 13:06 24,2 C 23,1 C 9,8 UV-I 5,1 C 52 % 53 % 100 % 1022,6 hPa 0,0 l/m 4,8 km/h (1 Bft) 2 min 8,2 km/h (2 Bft)
21.08.2009 13:08 24,2 C 23,2 C 9,6 UV-I 5,0 C 52 % 54 % 100 % 1022,6 hPa 0,0 l/m 5,1 km/h (1 Bft) 2 min 9,1 km/h (2 Bft)
21.08.2009 13:10 24,3 C 23,1 C 9,6 UV-I 5,1 C 52 % 53 % 100 % 1022,6 hPa 0,0 l/m 5,1 km/h (1 Bft) 2 min 9,1 km/h (2 Bft)
21.08.2009 13:12 24,3 C 23,3 C 5,0 UV-I 4,6 C 52 % 54 % 100 % 1022,6 hPa 0,0 l/m 4,8 km/h (1 Bft) 2 min 8,9 km/h (2 Bft)
21.08.2009 13:14 24,2 C 23,2 C 5,0 UV-I 4,0 C 52 % 53 % 100 % 1022,6 hPa 0,0 l/m 5,1 km/h (1 Bft) 2 min 5,5 km/h (1 Bft)
21.08.2009 13:18 24,4 C 23,3 C 3,9 UV-I 3,2 C 52 % 53 % 91 % 1022,9 hPa 0,0 l/m 4,3 km/h (1 Bft) 2 min 8,7 km/h (2 Bft)
21.08.2009 13:22 24,4 C 23,1 C 3,5 UV-I 2,6 C 51 % 52 % 74 % 1022,9 hPa 0,0 l/m 3,4 km/h (1 Bft) 0 min 9,1 km/h (2 Bft)
21.08.2009 13:24 24,4 C 23,1 C 3,5 UV-I 2,0 C 51 % 51 % 57 % 1022,9 hPa 0,0 l/m 3,4 km/h (1 Bft) 0 min 9,1 km/h (2 Bft)
21.08.2009 13:26 24,4 C 23,0 C 3,5 UV-I 1,5 C 51 % 51 % 43 % 1022,9 hPa 0,0 l/m 4,1 km/h (1 Bft) 0 min 6,0 km/h (2 Bft)
21.08.2009 13:28 24,5 C 22,9 C 3,3 UV-I 1,4 C 51 % 51 % 40 % 1022,9 hPa 0,0 l/m 4,3 km/h (1 Bft) 0 min 9,1 km/h (2 Bft)
21.08.2009 13:30 24,5 C 23,0 C 3,3 UV-I 1,6 C 51 % 52 % 46 % 1022,9 hPa 0,0 l/m 4,3 km/h (1 Bft) 0 min 8,9 km/h (2 Bft)
21.08.2009 13:32 24,5 C 23,0 C 4,6 UV-I 2,0 C 51 % 53 % 57 % 1022,9 hPa 0,0 l/m 4,8 km/h (1 Bft) 0 min 8,9 km/h (2 Bft)
21.08.2009 13:34 24,6 C 23,0 C 4,6 UV-I 2,4 C 51 % 53 % 69 % 1022,9 hPa 0,0 l/m 4,3 km/h (1 Bft) 0 min 3,8 km/h (1 Bft)
21.08.2009 13:36 24,6 C 23,0 C 4,6 UV-I 2,2 C 51 % 51 % 63 % 1022,7 hPa 0,0 l/m 4,1 km/h (1 Bft) 0 min 10,3 km/h (2 Bft)
21.08.2009 13:38 24,6 C 23,1 C 3,6 UV-I 1,8 C 51 % 51 % 51 % 1022,7 hPa 0,0 l/m 4,1 km/h (1 Bft) 0 min 10,3 km/h (2 Bft)
21.08.2009 13:40 24,6 C 23,0 C 3,6 UV-I 1,9 C 51 % 52 % 54 % 1022,7 hPa 0,0 l/m 3,6 km/h (1 Bft) 0 min 7,2 km/h (2 Bft)
21.08.2009 13:44 24,6 C 23,1 C 4,1 UV-I 1,5 C 51 % 52 % 43 % 1022,7 hPa 0,0 l/m 3,8 km/h (1 Bft) 0 min 18,0 km/h (3 Bft)
21.08.2009 13:46 24,7 C 23,1 C 4,1 UV-I 2,2 C 50 % 52 % 63 % 1022,7 hPa 0,0 l/m 3,4 km/h (1 Bft) 0 min 5,8 km/h (2 Bft)
21.08.2009 13:48 24,7 C 23,2 C 7,8 UV-I 2,8 C 50 % 52 % 80 % 1022,7 hPa 0,0 l/m 3,1 km/h (1 Bft) 0 min 5,8 km/h (2 Bft)
21.08.2009 13:50 24,8 C 23,3 C 7,8 UV-I 3,4 C 50 % 51 % 97 % 1022,7 hPa 0,0 l/m 3,6 km/h (1 Bft) 2 min 5,1 km/h (1 Bft)
21.08.2009 13:52 24,8 C 23,5 C 7,4 UV-I 3,6 C 50 % 50 % 100 % 1022,7 hPa 0,0 l/m 3,4 km/h (1 Bft) 2 min 5,1 km/h (1 Bft)
21.08.2009 13:56 24,9 C 23,5 C 7,4 UV-I 4,1 C 50 % 51 % 100 % 1022,8 hPa 0,0 l/m 4,6 km/h (1 Bft) 2 min 5,5 km/h (1 Bft)
21.08.2009 13:58 25,0 C 23,5 C 8,9 UV-I 4,5 C 50 % 49 % 100 % 1022,8 hPa 0,0 l/m 4,8 km/h (1 Bft) 2 min 0,0 km/h (0 Bft)
21.08.2009 14:00 25,0 C 23,7 C 8,9 UV-I 4,6 C 50 % 50 % 100 % 1022,8 hPa 0,0 l/m 4,8 km/h (1 Bft) 2 min 4,1 km/h (1 Bft)
21.08.2009 14:02 25,2 C 23,7 C 8,9 UV-I 5,0 C 50 % 50 % 100 % 1022,8 hPa 0,0 l/m 5,1 km/h (1 Bft) 2 min 20,7 km/h (4 Bft)
21.08.2009 14:04 25,2 C 23,9 C 8,9 UV-I 5,3 C 50 % 50 % 100 % 1022,8 hPa 0,0 l/m 4,3 km/h (1 Bft) 2 min 5,1 km/h (1 Bft)
21.08.2009 14:08 25,2 C 24,1 C 8,5 UV-I 5,6 C 50 % 48 % 100 % 1022,8 hPa 0,0 l/m 4,8 km/h (1 Bft) 2 min 5,3 km/h (1 Bft)
21.08.2009 14:10 25,4 C 24,1 C 8,5 UV-I 5,7 C 49 % 48 % 100 % 1022,8 hPa 0,0 l/m 4,8 km/h (1 Bft) 2 min 6,3 km/h (2 Bft)
21.08.2009 14:12 25,5 C 24,1 C 8,3 UV-I 5,9 C 49 % 48 % 100 % 1022,8 hPa 0,0 l/m 4,3 km/h (1 Bft) 2 min 6,3 km/h (2 Bft)
21.08.2009 14:14 25,5 C 24,3 C 8,3 UV-I 5,8 C 49 % 48 % 100 % 1022,8 hPa 0,0 l/m 4,6 km/h (1 Bft) 2 min 6,5 km/h (2 Bft)
21.08.2009 14:16 25,6 C 24,4 C 8,3 UV-I 5,6 C 49 % 47 % 100 % 1024,2 hPa 0,0 l/m 4,6 km/h (1 Bft) 2 min 6,5 km/h (2 Bft)
21.08.2009 14:18 25,7 C 24,5 C 7,7 UV-I 5,2 C 49 % 47 % 100 % 1024,2 hPa 0,0 l/m 4,8 km/h (1 Bft) 2 min 5,5 km/h (1 Bft)
21.08.2009 14:20 25,7 C 24,5 C 7,7 UV-I 5,0 C 49 % 47 % 100 % 1024,2 hPa 0,0 l/m 4,6 km/h (1 Bft) 2 min 5,5 km/h (1 Bft)
21.08.2009 14:22 25,8 C 24,5 C 8,1 UV-I 5,0 C 48 % 47 % 100 % 1024,2 hPa 0,0 l/m 4,8 km/h (1 Bft) 2 min 13,0 km/h (3 Bft)
21.08.2009 14:24 25,8 C 24,5 C 8,1 UV-I 5,0 C 48 % 47 % 100 % 1024,2 hPa 0,0 l/m 5,1 km/h (1 Bft) 2 min 13,0 km/h (3 Bft)
21.08.2009 14:26 25,9 C 24,5 C 8,1 UV-I 4,5 C 48 % 47 % 100 % 1024,2 hPa 0,0 l/m 4,8 km/h (1 Bft) 2 min 5,1 km/h (1 Bft)
21.08.2009 14:28 25,9 C 24,3 C 3,9 UV-I 3,9 C 48 % 47 % 100 % 1024,2 hPa 0,0 l/m 4,6 km/h (1 Bft) 2 min 7,2 km/h (2 Bft)
21.08.2009 14:30 25,9 C 24,3 C 3,9 UV-I 3,0 C 48 % 47 % 86 % 1024,2 hPa 0,0 l/m 4,3 km/h (1 Bft) 2 min 7,2 km/h (2 Bft)
21.08.2009 14:32 25,9 C 24,2 C 4,5 UV-I 2,7 C 48 % 47 % 77 % 1024,2 hPa 0,0 l/m 4,6 km/h (1 Bft) 0 min 5,1 km/h (1 Bft)
21.08.2009 14:34 26,0 C 24,3 C 4,5 UV-I 2,4 C 48 % 46 % 69 % 1024,2 hPa 0,0 l/m 4,6 km/h (1 Bft) 0 min 11,1 km/h (2 Bft)
21.08.2009 14:36 26,0 C 24,2 C 4,5 UV-I 2,8 C 48 % 46 % 80 % 1024,9 hPa 0,0 l/m 5,3 km/h (1 Bft) 0 min 16,6 km/h (3 Bft)
21.08.2009 14:38 26,0 C 24,2 C 7,3 UV-I 3,0 C 48 % 44 % 86 % 1024,9 hPa 0,0 l/m 5,8 km/h (2 Bft) 2 min 16,6 km/h (3 Bft)
21.08.2009 14:40 26,1 C 24,3 C 7,3 UV-I 3,4 C 47 % 46 % 97 % 1024,9 hPa 0,0 l/m 6,0 km/h (2 Bft) 2 min 6,7 km/h (2 Bft)
21.08.2009 14:42 26,1 C 24,3 C 8,3 UV-I 3,8 C 47 % 44 % 100 % 1024,9 hPa 0,0 l/m 6,3 km/h (2 Bft) 2 min 7,5 km/h (2 Bft)
21.08.2009 14:44 26,2 C 24,4 C 8,3 UV-I 4,0 C 47 % 44 % 100 % 1024,9 hPa 0,0 l/m 5,8 km/h (2 Bft) 2 min 7,5 km/h (2 Bft)
21.08.2009 14:46 26,2 C 24,5 C 8,3 UV-I 4,3 C 47 % 44 % 100 % 1024,9 hPa 0,0 l/m 5,5 km/h (1 Bft) 2 min 13,0 km/h (3 Bft)
21.08.2009 14:48 26,3 C 24,6 C 8,7 UV-I 4,4 C 46 % 44 % 100 % 1024,9 hPa 0,0 l/m 4,8 km/h (1 Bft) 2 min 13,0 km/h (3 Bft)
21.08.2009 14:50 26,4 C 24,7 C 8,7 UV-I 4,3 C 46 % 44 % 100 % 1024,9 hPa 0,0 l/m 4,8 km/h (1 Bft) 2 min 11,1 km/h (2 Bft)
21.08.2009 14:52 26,4 C 24,7 C 9,0 UV-I 4,5 C 46 % 43 % 100 % 1024,9 hPa 0,0 l/m 5,3 km/h (1 Bft) 2 min 11,1 km/h (2 Bft)
21.08.2009 14:54 26,5 C 24,8 C 9,0 UV-I 4,4 C 46 % 44 % 100 % 1024,9 hPa 0,0 l/m 5,3 km/h (1 Bft) 2 min 12,8 km/h (3 Bft)
21.08.2009 14:56 26,5 C 24,9 C 9,0 UV-I 4,4 C 45 % 44 % 100 % 1026,0 hPa 0,0 l/m 5,3 km/h (1 Bft) 2 min 3,8 km/h (1 Bft)
21.08.2009 15:00 26,6 C 25,1 C 8,8 UV-I 4,2 C 45 % 43 % 100 % 1026,0 hPa 0,0 l/m 5,3 km/h (1 Bft) 2 min 11,1 km/h (2 Bft)
21.08.2009 15:02 26,7 C 25,1 C 8,3 UV-I 4,4 C 44 % 42 % 100 % 1026,0 hPa 0,0 l/m 4,8 km/h (1 Bft) 2 min 23,6 km/h (4 Bft)
21.08.2009 15:04 26,8 C 25,1 C 8,3 UV-I 4,1 C 44 % 42 % 100 % 1026,0 hPa 0,0 l/m 4,8 km/h (1 Bft) 2 min 6,3 km/h (2 Bft)
21.08.2009 15:06 26,8 C 24,9 C 8,3 UV-I 4,3 C 43 % 42 % 100 % 1026,0 hPa 0,0 l/m 4,6 km/h (1 Bft) 2 min 6,7 km/h (2 Bft)
21.08.2009 15:10 26,9 C 24,9 C 9,7 UV-I 3,6 C 44 % 42 % 100 % 1026,0 hPa 0,0 l/m 5,5 km/h (1 Bft) 2 min 12,8 km/h (3 Bft)
21.08.2009 15:14 27,0 C 25,1 C 8,8 UV-I 3,4 C 43 % 43 % 97 % 1026,0 hPa 0,0 l/m 5,8 km/h (2 Bft) 2 min 16,1 km/h (3 Bft)
21.08.2009 15:16 27,0 C 25,1 C 8,8 UV-I 3,5 C 43 % 42 % 100 % 1026,5 hPa 0,0 l/m 5,5 km/h (1 Bft) 2 min 16,1 km/h (3 Bft)
21.08.2009 15:18 27,1 C 25,1 C 8,8 UV-I 3,9 C 43 % 42 % 100 % 1026,5 hPa 0,0 l/m 5,5 km/h (1 Bft) 2 min 4,6 km/h (1 Bft)
21.08.2009 15:20 27,2 C 25,0 C 8,8 UV-I 4,2 C 43 % 41 % 100 % 1026,5 hPa 0,0 l/m 5,3 km/h (1 Bft) 2 min 9,1 km/h (2 Bft)
21.08.2009 15:22 27,2 C 25,1 C 10,4 UV-I 4,2 C 43 % 43 % 100 % 1026,5 hPa 0,0 l/m 5,1 km/h (1 Bft) 2 min 9,1 km/h (2 Bft)
21.08.2009 15:24 27,3 C 25,1 C 10,4 UV-I 4,4 C 43 % 43 % 100 % 1026,5 hPa 0,0 l/m 5,3 km/h (1 Bft) 2 min 2,9 km/h (1 Bft)
21.08.2009 15:26 27,2 C 25,2 C 10,4 UV-I 4,4 C 43 % 42 % 100 % 1026,5 hPa 0,0 l/m 5,5 km/h (1 Bft) 2 min 7,0 km/h (2 Bft)
21.08.2009 15:30 27,4 C 25,4 C 10,4 UV-I 4,4 C 42 % 41 % 100 % 1026,5 hPa 0,0 l/m 4,8 km/h (1 Bft) 2 min 7,0 km/h (2 Bft)
21.08.2009 15:32 27,5 C 25,5 C 9,9 UV-I 4,5 C 42 % 41 % 100 % 1026,5 hPa 0,0 l/m 4,3 km/h (1 Bft) 2 min 8,2 km/h (2 Bft)
21.08.2009 15:34 27,6 C 25,3 C 9,9 UV-I 4,6 C 42 % 41 % 100 % 1026,5 hPa 0,0 l/m 4,6 km/h (1 Bft) 2 min 8,2 km/h (2 Bft)
21.08.2009 15:42 27,4 C 24,9 C 2,5 UV-I 1,2 C 42 % 41 % 34 % 1025,9 hPa 0,0 l/m 5,3 km/h (1 Bft) 0 min 10,1 km/h (2 Bft)
21.08.2009 15:44 27,4 C 24,7 C 2,5 UV-I 0,8 C 42 % 43 % 23 % 1025,9 hPa 0,0 l/m 5,1 km/h (1 Bft) 0 min 6,5 km/h (2 Bft)
21.08.2009 15:46 27,4 C 24,6 C 2,5 UV-I 0,8 C 42 % 41 % 23 % 1025,9 hPa 0,0 l/m 4,3 km/h (1 Bft) 0 min 7,5 km/h (2 Bft)
21.08.2009 15:50 27,4 C 24,6 C 7,3 UV-I 1,8 C 42 % 41 % 51 % 1025,9 hPa 0,0 l/m 4,6 km/h (1 Bft) 0 min 11,3 km/h (2 Bft)
21.08.2009 15:52 27,4 C 24,7 C 7,2 UV-I 1,7 C 42 % 42 % 49 % 1025,9 hPa 0,0 l/m 3,4 km/h (1 Bft) 0 min 11,3 km/h (2 Bft)
21.08.2009 15:54 27,4 C 24,7 C 7,2 UV-I 1,9 C 42 % 42 % 54 % 1025,9 hPa 0,0 l/m 3,6 km/h (1 Bft) 0 min 4,8 km/h (1 Bft)
21.08.2009 15:56 27,5 C 24,8 C 7,2 UV-I 2,1 C 42 % 40 % 60 % 1024,8 hPa 0,0 l/m 3,8 km/h (1 Bft) 0 min 6,3 km/h (2 Bft)
21.08.2009 15:58 27,5 C 24,8 C 9,1 UV-I 2,6 C 42 % 41 % 74 % 1024,8 hPa 0,0 l/m 4,1 km/h (1 Bft) 0 min 12,8 km/h (3 Bft)
21.08.2009 16:00 27,6 C 24,8 C 9,1 UV-I 3,0 C 42 % 42 % 86 % 1024,8 hPa 0,0 l/m 4,1 km/h (1 Bft) 2 min 12,8 km/h (3 Bft)
21.08.2009 16:02 27,6 C 24,9 C 7,1 UV-I 3,3 C 41 % 42 % 94 % 1024,8 hPa 0,0 l/m 3,8 km/h (1 Bft) 2 min 9,6 km/h (2 Bft)
21.08.2009 16:04 27,6 C 24,9 C 7,1 UV-I 3,2 C 41 % 41 % 91 % 1024,8 hPa 0,0 l/m 4,6 km/h (1 Bft) 2 min 8,2 km/h (2 Bft)
21.08.2009 16:06 27,7 C 25,0 C 7,1 UV-I 3,1 C 41 % 42 % 89 % 1024,8 hPa 0,0 l/m 4,1 km/h (1 Bft) 2 min 8,2 km/h (2 Bft)
21.08.2009 16:08 27,7 C 24,9 C 6,6 UV-I 3,2 C 41 % 41 % 91 % 1024,8 hPa 0,0 l/m 3,6 km/h (1 Bft) 2 min 7,9 km/h (2 Bft)
21.08.2009 16:12 27,8 C 24,9 C 6,6 UV-I 4,0 C 41 % 41 % 100 % 1024,8 hPa 0,0 l/m 3,4 km/h (1 Bft) 2 min 7,9 km/h (2 Bft)
21.08.2009 16:14 27,9 C 25,0 C 6,6 UV-I 4,4 C 41 % 42 % 100 % 1024,8 hPa 0,0 l/m 2,9 km/h (1 Bft) 2 min 4,3 km/h (1 Bft)
21.08.2009 16:16 27,9 C 25,1 C 6,6 UV-I 4,2 C 41 % 41 % 100 % 1025,6 hPa 0,0 l/m 3,4 km/h (1 Bft) 2 min 12,5 km/h (3 Bft)
21.08.2009 16:18 28,0 C 25,0 C 6,2 UV-I 4,2 C 41 % 41 % 100 % 1025,6 hPa 0,0 l/m 3,6 km/h (1 Bft) 2 min 12,5 km/h (3 Bft)
21.08.2009 16:24 28,0 C 24,8 C 4,0 UV-I 3,5 C 41 % 39 % 100 % 1025,6 hPa 0,0 l/m 4,8 km/h (1 Bft) 2 min 6,7 km/h (2 Bft)
21.08.2009 16:26 28,0 C 24,7 C 4,0 UV-I 3,2 C 40 % 41 % 91 % 1025,6 hPa 0,0 l/m 4,8 km/h (1 Bft) 2 min 6,7 km/h (2 Bft)
21.08.2009 16:30 28,0 C 24,7 C 3,2 UV-I 2,7 C 41 % 42 % 77 % 1025,6 hPa 0,0 l/m 4,1 km/h (1 Bft) 0 min 6,7 km/h (2 Bft)
21.08.2009 16:32 28,0 C 24,7 C 3,1 UV-I 2,7 C 41 % 42 % 77 % 1025,6 hPa 0,0 l/m 4,3 km/h (1 Bft) 0 min 11,8 km/h (2 Bft)
21.08.2009 16:34 28,0 C 24,7 C 3,1 UV-I 2,6 C 41 % 41 % 74 % 1025,6 hPa 0,0 l/m 3,6 km/h (1 Bft) 0 min 11,8 km/h (2 Bft)
21.08.2009 16:36 28,0 C 24,6 C 3,1 UV-I 2,4 C 41 % 41 % 69 % 1024,6 hPa 0,0 l/m 3,6 km/h (1 Bft) 0 min 11,3 km/h (2 Bft)
21.08.2009 16:38 28,0 C 24,5 C 3,1 UV-I 2,5 C 40 % 42 % 71 % 1024,6 hPa 0,0 l/m 3,6 km/h (1 Bft) 0 min 6,3 km/h (2 Bft)
21.08.2009 16:42 28,0 C 24,7 C 3,1 UV-I 3,2 C 40 % 42 % 91 % 1024,6 hPa 0,0 l/m 4,6 km/h (1 Bft) 2 min 9,9 km/h (2 Bft)
21.08.2009 16:44 28,0 C 24,9 C 3,1 UV-I 3,4 C 40 % 41 % 97 % 1024,6 hPa 0,0 l/m 3,8 km/h (1 Bft) 2 min 0,0 km/h (0 Bft)
21.08.2009 16:46 28,2 C 24,8 C 3,1 UV-I 3,9 C 40 % 42 % 100 % 1024,6 hPa 0,0 l/m 3,4 km/h (1 Bft) 2 min 0,0 km/h (0 Bft)
21.08.2009 16:50 28,2 C 24,8 C 2,7 UV-I 3,5 C 40 % 41 % 100 % 1024,6 hPa 0,0 l/m 2,6 km/h (1 Bft) 2 min 2,6 km/h (1 Bft)
21.08.2009 16:56 28,1 C 24,6 C 2,4 UV-I 2,3 C 40 % 42 % 66 % 1024,4 hPa 0,0 l/m 2,4 km/h (1 Bft) 0 min 5,5 km/h (1 Bft)
21.08.2009 16:58 28,0 C 24,6 C 2,5 UV-I 1,9 C 40 % 41 % 54 % 1024,4 hPa 0,0 l/m 3,4 km/h (1 Bft) 0 min 14,9 km/h (3 Bft)
21.08.2009 17:00 28,0 C 24,5 C 2,5 UV-I 1,7 C 40 % 42 % 49 % 1024,4 hPa 0,0 l/m 3,6 km/h (1 Bft) 0 min 14,9 km/h (3 Bft)
21.08.2009 17:02 28,0 C 24,4 C 2,5 UV-I 1,6 C 40 % 42 % 46 % 1024,4 hPa 0,0 l/m 3,6 km/h (1 Bft) 0 min 6,0 km/h (2 Bft)
21.08.2009 17:04 27,9 C 24,4 C 2,5 UV-I 1,6 C 40 % 43 % 46 % 1024,4 hPa 0,0 l/m 3,1 km/h (1 Bft) 0 min 0,0 km/h (0 Bft)
21.08.2009 17:06 27,8 C 24,4 C 2,5 UV-I 1,5 C 41 % 43 % 43 % 1024,4 hPa 0,0 l/m 2,4 km/h (1 Bft) 0 min 5,3 km/h (1 Bft)
21.08.2009 17:08 27,8 C 24,5 C 2,5 UV-I 1,2 C 41 % 42 % 34 % 1024,4 hPa 0,0 l/m 2,2 km/h (1 Bft) 0 min 0,0 km/h (0 Bft)
21.08.2009 17:10 27,8 C 24,4 C 2,5 UV-I 1,2 C 41 % 43 % 34 % 1024,4 hPa 0,0 l/m 1,2 km/h (1 Bft) 0 min 0,0 km/h (0 Bft)
21.08.2009 17:12 27,7 C 24,3 C 2,3 UV-I 1,2 C 41 % 42 % 34 % 1024,4 hPa 0,0 l/m 1,4 km/h (1 Bft) 0 min 4,6 km/h (1 Bft)
21.08.2009 17:14 27,7 C 24,3 C 2,3 UV-I 1,1 C 41 % 42 % 31 % 1024,4 hPa 0,0 l/m 1,7 km/h (1 Bft) 0 min 4,6 km/h (1 Bft)
21.08.2009 17:16 27,6 C 24,3 C 2,3 UV-I 0,7 C 41 % 41 % 20 % 1023,8 hPa 0,0 l/m 2,4 km/h (1 Bft) 0 min 0,0 km/h (0 Bft)
21.08.2009 17:26 27,4 C 24,0 C 1,8 UV-I 0,2 C 41 % 42 % 6 % 1023,8 hPa 0,0 l/m 2,6 km/h (1 Bft) 0 min 8,2 km/h (2 Bft)
21.08.2009 17:28 27,2 C 23,9 C 2,1 UV-I 0,2 C 41 % 41 % 6 % 1023,8 hPa 0,0 l/m 2,6 km/h (1 Bft) 0 min 9,9 km/h (2 Bft)
21.08.2009 17:30 27,2 C 23,9 C 2,1 UV-I 0,1 C 41 % 41 % 3 % 1023,8 hPa 0,0 l/m 2,4 km/h (1 Bft) 0 min 9,9 km/h (2 Bft)
21.08.2009 17:32 27,2 C 23,8 C 2,0 UV-I 0,2 C 41 % 42 % 6 % 1023,8 hPa 0,0 l/m 2,4 km/h (1 Bft) 0 min 6,3 km/h (2 Bft)
21.08.2009 17:34 27,2 C 23,9 C 2,0 UV-I 0,1 C 41 % 42 % 3 % 1023,8 hPa 0,0 l/m 2,4 km/h (1 Bft) 0 min 5,1 km/h (1 Bft)
21.08.2009 17:36 27,2 C 23,9 C 2,0 UV-I 0,2 C 41 % 43 % 6 % 1023,4 hPa 0,0 l/m 2,6 km/h (1 Bft) 0 min 5,1 km/h (1 Bft)
21.08.2009 17:40 27,1 C 23,7 C 2,1 UV-I 0,7 C 41 % 43 % 20 % 1023,4 hPa 0,0 l/m 2,6 km/h (1 Bft) 0 min 9,6 km/h (2 Bft)
21.08.2009 17:42 27,1 C 23,7 C 2,2 UV-I 1,0 C 41 % 43 % 29 % 1023,4 hPa 0,0 l/m 3,4 km/h (1 Bft) 0 min 7,2 km/h (2 Bft)
21.08.2009 17:44 27,1 C 23,8 C 2,2 UV-I 1,0 C 42 % 43 % 29 % 1023,4 hPa 0,0 l/m 3,4 km/h (1 Bft) 0 min 3,4 km/h (1 Bft)
21.08.2009 17:46 27,1 C 23,7 C 2,2 UV-I 1,1 C 42 % 43 % 31 % 1023,4 hPa 0,0 l/m 3,6 km/h (1 Bft) 0 min 7,0 km/h (2 Bft)
21.08.2009 17:48 27,0 C 23,7 C 1,9 UV-I 0,8 C 42 % 43 % 23 % 1023,4 hPa 0,0 l/m 3,4 km/h (1 Bft) 0 min 7,0 km/h (2 Bft)
21.08.2009 17:52 27,0 C 23,7 C 1,6 UV-I 0,7 C 42 % 43 % 20 % 1023,4 hPa 0,0 l/m 2,2 km/h (1 Bft) 0 min 2,4 km/h (1 Bft)
21.08.2009 17:56 26,9 C 23,6 C 1,6 UV-I 0,6 C 42 % 44 % 17 % 1023,0 hPa 0,0 l/m 1,4 km/h (1 Bft) 0 min 3,6 km/h (1 Bft)
21.08.2009 17:58 26,9 C 23,5 C 1,6 UV-I 0,5 C 42 % 44 % 14 % 1023,0 hPa 0,0 l/m 1,4 km/h (1 Bft) 0 min 8,2 km/h (2 Bft)
21.08.2009 18:04 26,8 C 23,5 C 1,5 UV-I 0,0 C 42 % 44 % 0 % 1023,0 hPa 0,0 l/m 2,4 km/h (1 Bft) 0 min 9,6 km/h (2 Bft)
21.08.2009 18:06 26,8 C 23,4 C 1,5 UV-I 0,0 C 42 % 44 % 0 % 1023,0 hPa 0,0 l/m 2,9 km/h (1 Bft) 0 min 9,6 km/h (2 Bft)
21.08.2009 18:08 26,7 C 23,3 C 1,4 UV-I 0,0 C 42 % 44 % 0 % 1023,0 hPa 0,0 l/m 2,9 km/h (1 Bft) 0 min 5,5 km/h (1 Bft)
21.08.2009 18:10 26,7 C 23,3 C 1,4 UV-I 0,0 C 42 % 44 % 0 % 1023,0 hPa 0,0 l/m 2,6 km/h (1 Bft) 0 min 5,3 km/h (1 Bft)
21.08.2009 18:12 26,6 C 23,2 C 1,0 UV-I 0,0 C 42 % 45 % 0 % 1023,0 hPa 0,0 l/m 2,2 km/h (1 Bft) 0 min 5,3 km/h (1 Bft)
21.08.2009 18:14 26,6 C 23,3 C 1,0 UV-I 0,0 C 42 % 45 % 0 % 1023,0 hPa 0,0 l/m 2,4 km/h (1 Bft) 0 min 4,1 km/h (1 Bft)
21.08.2009 18:18 26,6 C 23,1 C 1,1 UV-I 0,0 C 42 % 46 % 0 % 1022,6 hPa 0,0 l/m 1,7 km/h (1 Bft) 0 min 4,1 km/h (1 Bft)
21.08.2009 18:20 26,5 C 23,1 C 1,1 UV-I 0,0 C 42 % 44 % 0 % 1022,6 hPa 0,0 l/m 1,7 km/h (1 Bft) 0 min 0,0 km/h (0 Bft)
21.08.2009 18:22 26,5 C 23,1 C 1,1 UV-I 0,0 C 42 % 45 % 0 % 1022,6 hPa 0,0 l/m 2,2 km/h (1 Bft) 0 min 6,5 km/h (2 Bft)
21.08.2009 18:30 26,4 C 23,1 C 1,2 UV-I 0,0 C 42 % 45 % 0 % 1022,6 hPa 0,0 l/m 2,2 km/h (1 Bft) 0 min 7,7 km/h (2 Bft)
21.08.2009 18:32 26,4 C 22,9 C 1,0 UV-I 0,2 C 42 % 44 % 6 % 1022,6 hPa 0,0 l/m 2,6 km/h (1 Bft) 0 min 3,1 km/h (1 Bft)
21.08.2009 18:34 26,4 C 22,9 C 1,0 UV-I 0,2 C 43 % 44 % 6 % 1022,6 hPa 0,0 l/m 2,4 km/h (1 Bft) 0 min 5,5 km/h (1 Bft)
21.08.2009 18:36 26,4 C 22,9 C 1,0 UV-I 0,1 C 43 % 44 % 3 % 1022,4 hPa 0,0 l/m 2,4 km/h (1 Bft) 0 min 4,3 km/h (1 Bft)
21.08.2009 18:40 26,2 C 22,9 C 0,9 UV-I 0,0 C 42 % 44 % 0 % 1022,4 hPa 0,0 l/m 3,1 km/h (1 Bft) 0 min 5,8 km/h (2 Bft)
21.08.2009 18:42 26,3 C 22,8 C 1,0 UV-I 0,0 C 42 % 44 % 0 % 1022,4 hPa 0,0 l/m 2,9 km/h (1 Bft) 0 min 5,8 km/h (2 Bft)
21.08.2009 18:44 26,3 C 22,7 C 1,0 UV-I 0,0 C 42 % 45 % 0 % 1022,4 hPa 0,0 l/m 2,6 km/h (1 Bft) 0 min 4,6 km/h (1 Bft)
21.08.2009 18:50 26,2 C 22,6 C 0,9 UV-I 0,0 C 43 % 45 % 0 % 1022,4 hPa 0,0 l/m 1,9 km/h (1 Bft) 0 min 4,6 km/h (1 Bft)
21.08.2009 18:52 26,2 C 22,6 C 0,9 UV-I 0,0 C 43 % 45 % 0 % 1022,4 hPa 0,0 l/m 1,4 km/h (1 Bft) 0 min 4,1 km/h (1 Bft)
21.08.2009 18:54 26,2 C 22,5 C 0,9 UV-I 0,0 C 43 % 45 % 0 % 1022,4 hPa 0,0 l/m 1,4 km/h (1 Bft) 0 min 0,0 km/h (0 Bft)
21.08.2009 18:56 26,2 C 22,5 C 0,9 UV-I 0,0 C 43 % 45 % 0 % 1022,6 hPa 0,0 l/m 1,2 km/h (1 Bft) 0 min 0,0 km/h (0 Bft)
21.08.2009 18:58 26,2 C 22,4 C 0,9 UV-I 0,0 C 43 % 45 % 0 % 1022,6 hPa 0,0 l/m 1,4 km/h (1 Bft) 0 min 2,6 km/h (1 Bft)
21.08.2009 19:00 26,1 C 22,4 C 0,9 UV-I 0,0 C 43 % 46 % 0 % 1022,6 hPa 0,0 l/m 1,4 km/h (1 Bft) 0 min 7,0 km/h (2 Bft)
21.08.2009 19:02 26,1 C 22,4 C 0,8 UV-I 0,0 C 43 % 44 % 0 % 1022,6 hPa 0,0 l/m 2,2 km/h (1 Bft) 0 min 13,5 km/h (3 Bft)
21.08.2009 19:04 26,1 C 22,3 C 0,8 UV-I 0,0 C 43 % 44 % 0 % 1022,6 hPa 0,0 l/m 3,1 km/h (1 Bft) 0 min 13,5 km/h (3 Bft)
21.08.2009 19:06 26,0 C 22,2 C 0,8 UV-I 0,0 C 43 % 44 % 0 % 1022,6 hPa 0,0 l/m 3,6 km/h (1 Bft) 0 min 11,8 km/h (2 Bft)
21.08.2009 19:10 26,0 C 22,3 C 0,7 UV-I 0,0 C 43 % 45 % 0 % 1022,6 hPa 0,0 l/m 3,6 km/h (1 Bft) 0 min 4,6 km/h (1 Bft)
21.08.2009 19:12 26,0 C 22,1 C 0,7 UV-I 0,0 C 43 % 46 % 0 % 1022,6 hPa 0,0 l/m 3,1 km/h (1 Bft) 0 min 4,3 km/h (1 Bft)
21.08.2009 19:14 26,0 C 22,1 C 0,7 UV-I 0,0 C 43 % 46 % 0 % 1022,6 hPa 0,0 l/m 2,2 km/h (1 Bft) 0 min 4,3 km/h (1 Bft)
21.08.2009 19:16 26,0 C 22,1 C 0,7 UV-I 0,0 C 43 % 46 % 0 % 1022,4 hPa 0,0 l/m 1,4 km/h (1 Bft) 0 min 0,0 km/h (0 Bft)
21.08.2009 19:22 25,9 C 22,1 C 0,6 UV-I 0,0 C 43 % 47 % 0 % 1022,4 hPa 0,0 l/m 1,0 km/h (0 Bft) 0 min 6,3 km/h (2 Bft)
21.08.2009 19:26 25,9 C 22,0 C 0,6 UV-I 0,0 C 43 % 46 % 0 % 1022,4 hPa 0,0 l/m 1,2 km/h (1 Bft) 0 min 6,3 km/h (2 Bft)
21.08.2009 19:28 25,9 C 22,0 C 0,5 UV-I 0,0 C 43 % 46 % 0 % 1022,4 hPa 0,0 l/m 1,2 km/h (1 Bft) 0 min 2,6 km/h (1 Bft)
21.08.2009 19:32 25,8 C 22,0 C 0,4 UV-I 0,0 C 43 % 47 % 0 % 1022,4 hPa 0,0 l/m 1,2 km/h (1 Bft) 0 min 0,0 km/h (0 Bft)
21.08.2009 19:44 25,8 C 21,7 C 0,3 UV-I 0,0 C 44 % 48 % 0 % 1022,4 hPa 0,0 l/m 0,2 km/h (0 Bft) 0 min 0,0 km/h (0 Bft)
21.08.2009 19:46 25,7 C 21,6 C 0,3 UV-I 0,0 C 44 % 48 % 0 % 1022,4 hPa 0,0 l/m 0,2 km/h (0 Bft) 0 min 0,0 km/h (0 Bft)
21.08.2009 19:48 25,7 C 21,6 C 0,3 UV-I 0,0 C 44 % 49 % 0 % 1022,4 hPa 0,0 l/m 0,2 km/h (0 Bft) 0 min 0,0 km/h (0 Bft)
21.08.2009 19:50 25,7 C 21,5 C 0,3 UV-I 0,0 C 44 % 49 % 0 % 1022,4 hPa 0,0 l/m 0,2 km/h (0 Bft) 0 min 0,0 km/h (0 Bft)
21.08.2009 19:52 25,7 C 21,5 C 0,1 UV-I 0,0 C 44 % 49 % 0 % 1022,4 hPa 0,0 l/m 0,0 km/h (0 Bft) 0 min 0,0 km/h (0 Bft)
21.08.2009 19:54 25,7 C 21,4 C 0,1 UV-I 0,0 C 44 % 49 % 0 % 1022,4 hPa 0,0 l/m 0,0 km/h (0 Bft) 0 min 0,0 km/h (0 Bft)
21.08.2009 19:56 25,6 C 21,5 C 0,1 UV-I 0,0 C 44 % 50 % 0 % 1022,4 hPa 0,0 l/m 0,0 km/h (0 Bft) 0 min 0,0 km/h (0 Bft)
21.08.2009 20:00 25,6 C 21,3 C 0,2 UV-I 0,0 C 44 % 49 % 0 % 1022,4 hPa 0,0 l/m 0,0 km/h (0 Bft) 0 min 0,0 km/h (0 Bft)
21.08.2009 20:06 25,6 C 21,2 C 0,2 UV-I 0,0 C 44 % 50 % 0 % 1022,4 hPa 0,0 l/m 0,0 km/h (0 Bft) 0 min 0,0 km/h (0 Bft)
21.08.2009 20:08 25,6 C 21,1 C 0,0 UV-I 0,0 C 45 % 50 % 0 % 1022,4 hPa 0,0 l/m 0,0 km/h (0 Bft) 0 min 0,0 km/h (0 Bft)
21.08.2009 20:10 25,5 C 21,1 C 0,0 UV-I 0,0 C 45 % 50 % 0 % 1022,4 hPa 0,0 l/m 0,0 km/h (0 Bft) 0 min 0,0 km/h (0 Bft)
21.08.2009 20:12 25,5 C 21,0 C 0,0 UV-I 0,0 C 45 % 51 % 0 % 1022,4 hPa 0,0 l/m 0,0 km/h (0 Bft) 0 min 0,0 km/h (0 Bft)
21.08.2009 20:20 25,4 C 20,8 C 0,0 UV-I 0,0 C 45 % 52 % 0 % 1022,5 hPa 0,0 l/m 0,7 km/h (0 Bft) 0 min 0,0 km/h (0 Bft)
21.08.2009 20:22 25,4 C 20,8 C 0,0 UV-I 0,0 C 45 % 52 % 0 % 1022,5 hPa 0,0 l/m 0,7 km/h (0 Bft) 0 min 0,0 km/h (0 Bft)
21.08.2009 20:26 25,4 C 20,8 C 0,0 UV-I 0,0 C 45 % 53 % 0 % 1022,5 hPa 0,0 l/m 1,4 km/h (1 Bft) 0 min 3,1 km/h (1 Bft)
21.08.2009 20:28 25,2 C 20,8 C 0,0 UV-I 0,0 C 45 % 53 % 0 % 1022,5 hPa 0,0 l/m 1,0 km/h (0 Bft) 0 min 0,0 km/h (0 Bft)
21.08.2009 20:30 25,4 C 20,7 C 0,0 UV-I 0,0 C 45 % 54 % 0 % 1022,5 hPa 0,0 l/m 0,7 km/h (0 Bft) 0 min 0,0 km/h (0 Bft)
21.08.2009 20:32 25,4 C 20,7 C 0,0 UV-I 0,0 C 45 % 54 % 0 % 1022,5 hPa 0,0 l/m 1,2 km/h (1 Bft) 0 min 4,3 km/h (1 Bft)
21.08.2009 20:34 25,2 C 20,6 C 0,0 UV-I 0,0 C 45 % 55 % 0 % 1022,5 hPa 0,0 l/m 1,2 km/h (1 Bft) 0 min 0,0 km/h (0 Bft)
21.08.2009 20:38 25,3 C 20,6 C 0,0 UV-I 0,0 C 46 % 56 % 0 % 1022,8 hPa 0,0 l/m 1,7 km/h (1 Bft) 0 min 4,3 km/h (1 Bft)
21.08.2009 20:39 25,3 C 20,5 C 0,0 UV-I 0,0 C 46 % 56 % 0 % 1022,8 hPa 0,0 l/m 1,7 km/h (1 Bft) 0 min 2,4 km/h (1 Bft)
21.08.2009 20:44 25,2 C 20,5 C 0,0 UV-I 0,0 C 46 % 57 % 0 % 1022,8 hPa 0,0 l/m 1,4 km/h (1 Bft) 0 min 3,1 km/h (1 Bft)
21.08.2009 20:49 25,2 C 20,5 C 0,0 UV-I 0,0 C 46 % 57 % 0 % 1022,8 hPa 0,0 l/m 0,5 km/h (0 Bft) 0 min 0,0 km/h (0 Bft)
21.08.2009 20:54 25,2 C 20,3 C 0,0 UV-I 0,0 C 46 % 58 % 0 % 1022,8 hPa 0,0 l/m 0,2 km/h (0 Bft) 0 min 0,0 km/h (0 Bft)
21.08.2009 20:59 25,2 C 20,3 C 0,0 UV-I 0,0 C 47 % 59 % 0 % 1022,9 hPa 0,0 l/m 0,5 km/h (0 Bft) 0 min 3,8 km/h (1 Bft)
21.08.2009 21:04 25,1 C 20,1 C 0,0 UV-I 0,0 C 47 % 59 % 0 % 1022,9 hPa 0,0 l/m 1,2 km/h (1 Bft) 0 min 6,5 km/h (2 Bft)
21.08.2009 21:09 25,1 C 20,1 C 0,0 UV-I 0,0 C 47 % 60 % 0 % 1022,9 hPa 0,0 l/m 2,2 km/h (1 Bft) 0 min 0,0 km/h (0 Bft)
21.08.2009 21:14 25,0 C 19,9 C 0,0 UV-I 0,0 C 47 % 60 % 0 % 1022,9 hPa 0,0 l/m 2,2 km/h (1 Bft) 0 min 0,0 km/h (0 Bft)
21.08.2009 21:19 25,0 C 19,9 C 0,0 UV-I 0,0 C 47 % 60 % 0 % 1023,2 hPa 0,0 l/m 1,0 km/h (0 Bft) 0 min 3,1 km/h (1 Bft)
21.08.2009 21:24 25,0 C 19,7 C 0,0 UV-I 0,0 C 47 % 61 % 0 % 1023,2 hPa 0,0 l/m 1,0 km/h (0 Bft) 0 min 0,0 km/h (0 Bft)
21.08.2009 21:29 25,0 C 19,6 C 0,0 UV-I 0,0 C 47 % 61 % 0 % 1023,2 hPa 0,0 l/m 1,2 km/h (1 Bft) 0 min 2,6 km/h (1 Bft)
21.08.2009 21:34 24,9 C 19,6 C 0,0 UV-I 0,0 C 48 % 61 % 0 % 1023,2 hPa 0,0 l/m 1,2 km/h (1 Bft) 0 min 0,0 km/h (0 Bft)
21.08.2009 21:39 24,9 C 19,5 C 0,0 UV-I 0,0 C 48 % 62 % 0 % 1023,4 hPa 0,0 l/m 1,7 km/h (1 Bft) 0 min 0,0 km/h (0 Bft)
21.08.2009 21:44 24,8 C 19,3 C 0,0 UV-I 0,0 C 48 % 62 % 0 % 1023,4 hPa 0,0 l/m 1,7 km/h (1 Bft) 0 min 0,0 km/h (0 Bft)
21.08.2009 21:49 24,8 C 19,3 C 0,0 UV-I 0,0 C 48 % 63 % 0 % 1023,4 hPa 0,0 l/m 0,5 km/h (0 Bft) 0 min 0,0 km/h (0 Bft)
21.08.2009 21:54 24,8 C 19,2 C 0,0 UV-I 0,0 C 48 % 63 % 0 % 1023,4 hPa 0,0 l/m 0,5 km/h (0 Bft) 0 min 3,1 km/h (1 Bft)
21.08.2009 21:59 24,8 C 19,1 C 0,0 UV-I 0,0 C 49 % 63 % 0 % 1023,3 hPa 0,0 l/m 0,2 km/h (0 Bft) 0 min 0,0 km/h (0 Bft)
21.08.2009 22:04 24,8 C 18,9 C 0,0 UV-I 0,0 C 49 % 64 % 0 % 1023,3 hPa 0,0 l/m 0,2 km/h (0 Bft) 0 min 0,0 km/h (0 Bft)
21.08.2009 22:09 24,7 C 18,8 C 0,0 UV-I 0,0 C 49 % 64 % 0 % 1023,3 hPa 0,0 l/m 0,0 km/h (0 Bft) 0 min 0,0 km/h (0 Bft)
21.08.2009 22:14 24,7 C 18,9 C 0,0 UV-I 0,0 C 49 % 65 % 0 % 1023,3 hPa 0,0 l/m 0,0 km/h (0 Bft) 0 min 2,4 km/h (1 Bft)
21.08.2009 22:19 24,7 C 18,8 C 0,0 UV-I 0,0 C 49 % 65 % 0 % 1023,8 hPa 0,0 l/m 0,2 km/h (0 Bft) 0 min 0,0 km/h (0 Bft)
21.08.2009 22:24 24,6 C 18,7 C 0,0 UV-I 0,0 C 49 % 65 % 0 % 1023,8 hPa 0,0 l/m 0,2 km/h (0 Bft) 0 min 0,0 km/h (0 Bft)
21.08.2009 22:29 24,6 C 18,6 C 0,0 UV-I 0,0 C 49 % 66 % 0 % 1023,8 hPa 0,0 l/m 0,0 km/h (0 Bft) 0 min 0,0 km/h (0 Bft)
21.08.2009 22:34 24,6 C 18,7 C 0,0 UV-I 0,0 C 50 % 66 % 0 % 1023,8 hPa 0,0 l/m 0,0 km/h (0 Bft) 0 min 0,0 km/h (0 Bft)
21.08.2009 22:39 24,6 C 18,6 C 0,0 UV-I 0,0 C 50 % 67 % 0 % 1023,5 hPa 0,0 l/m 0,2 km/h (0 Bft) 0 min 0,0 km/h (0 Bft)
21.08.2009 22:44 24,5 C 18,5 C 0,0 UV-I 0,0 C 50 % 67 % 0 % 1023,5 hPa 0,0 l/m 0,2 km/h (0 Bft) 0 min 0,0 km/h (0 Bft)
21.08.2009 22:49 24,5 C 18,4 C 0,0 UV-I 0,0 C 50 % 67 % 0 % 1023,5 hPa 0,0 l/m 0,0 km/h (0 Bft) 0 min 0,0 km/h (0 Bft)
21.08.2009 22:54 24,5 C 18,5 C 0,0 UV-I 0,0 C 50 % 67 % 0 % 1023,5 hPa 0,0 l/m 0,0 km/h (0 Bft) 0 min 0,0 km/h (0 Bft)
21.08.2009 22:59 24,5 C 18,4 C 0,0 UV-I 0,0 C 50 % 68 % 0 % 1023,4 hPa 0,0 l/m 0,0 km/h (0 Bft) 0 min 0,0 km/h (0 Bft)
21.08.2009 23:04 24,5 C 18,3 C 0,0 UV-I 0,0 C 50 % 68 % 0 % 1023,4 hPa 0,0 l/m 0,0 km/h (0 Bft) 0 min 0,0 km/h (0 Bft)
21.08.2009 23:09 24,4 C 18,3 C 0,0 UV-I 0,0 C 50 % 69 % 0 % 1023,4 hPa 0,0 l/m 0,0 km/h (0 Bft) 0 min 0,0 km/h (0 Bft)
21.08.2009 23:14 24,4 C 18,3 C 0,0 UV-I 0,0 C 50 % 69 % 0 % 1023,4 hPa 0,0 l/m 0,0 km/h (0 Bft) 0 min 0,0 km/h (0 Bft)
21.08.2009 23:19 24,4 C 18,1 C 0,0 UV-I 0,0 C 51 % 70 % 0 % 1023,9 hPa 0,0 l/m 0,0 km/h (0 Bft) 0 min 0,0 km/h (0 Bft)
21.08.2009 23:24 24,4 C 18,0 C 0,0 UV-I 0,0 C 51 % 70 % 0 % 1023,9 hPa 0,0 l/m 0,0 km/h (0 Bft) 0 min 0,0 km/h (0 Bft)
21.08.2009 23:29 24,2 C 18,0 C 0,0 UV-I 0,0 C 51 % 70 % 0 % 1023,9 hPa 0,0 l/m 0,0 km/h (0 Bft) 0 min 0,0 km/h (0 Bft)
21.08.2009 23:34 24,3 C 17,9 C 0,0 UV-I 0,0 C 51 % 71 % 0 % 1023,9 hPa 0,0 l/m 0,0 km/h (0 Bft) 0 min 0,0 km/h (0 Bft)
21.08.2009 23:39 24,2 C 17,9 C 0,0 UV-I 0,0 C 51 % 71 % 0 % 1023,6 hPa 0,0 l/m 0,0 km/h (0 Bft) 0 min 0,0 km/h (0 Bft)
21.08.2009 23:44 24,2 C 17,7 C 0,0 UV-I 0,0 C 51 % 71 % 0 % 1023,6 hPa 0,0 l/m 0,0 km/h (0 Bft) 0 min 0,0 km/h (0 Bft)
21.08.2009 23:49 24,2 C 17,7 C 0,0 UV-I 0,0 C 51 % 71 % 0 % 1023,6 hPa 0,0 l/m 0,0 km/h (0 Bft) 0 min 0,0 km/h (0 Bft)
21.08.2009 23:54 24,2 C 17,5 C 0,0 UV-I 0,0 C 51 % 72 % 0 % 1023,6 hPa 0,0 l/m 0,0 km/h (0 Bft) 0 min 0,0 km/h (0 Bft)
21.08.2009 23:59 24,2 C 17,5 C 0,0 UV-I 0,0 C 51 % 72 % 0 % 1023,8 hPa 0,0 l/m 0,0 km/h (0 Bft) 0 min 0,0 km/h (0 Bft)
_ Min-Zeit 07:24 07:02 00:04 00:04 16:26 16:24 00:04 00:04 - 00:19 - 00:04
Minimum _ 23,6 C 16,6 C 0,0 UV-I 0,0 C 40 % 39 % 0 % 1020,3 hPa - 0,0 km/h (0 Bft) - 0,0 km/h (0 Bft)
_ Max-Zeit 16:46 15:32 12:08 14:12 00:04 01:19 10:22 15:16 00:04 14:42 10:22 15:02
Maximum _ 28,2 C 25,5 C 11,9 UV-I 5,9 C 63 % 88 % 100 % 1026,5 hPa 0,0 l/m 6,3 km/h
N (2 Bft)
2 min 23,6 km/h
N-NO (4 Bft)
Durchschnitt _ 25,0 C 20,1 C 2,2 UV-I 1,1 C 52 % 67 % 26 % 1022,5 hPa #0,0 l/m 2,0 km/h (1 Bft) #3:46 h 4,2 km/h (1 Bft)
© 2012 W. Hausmann